CW1648 Weather Reports


Display with metric or nautical units.
time (UTC)temp
F
wind
direction
speed
MPH
gust
MPH
rain 1hr
in
rain 24hr
in
rain mn
in
humidity
%
barometer
mb
20260507151928 61 264 0.0 3.0 0.00 0.39 0.27 53 1003.9
20260507151827 60 271 0.0 3.0 0.00 0.39 0.27 52 1004.1
20260507151726 60 0 0.0 2.0 0.00 0.39 0.27 51 1004.0
20260507151658 60 0 0.0 2.0 0.00 0.40 0.27 53 1003.9
20260507151625 60 0 0.0 2.0 0.00 0.40 0.27 53 1003.9
20260507151539 60 278 0.0 2.0 0.00 0.40 0.27 53 1003.8
20260507151534 60 0 0.0 2.0 0.00 0.40 0.27 55 1003.8
20260507151324 59 0 0.0 8.0 0.00 0.40 0.27 56 1003.9
20260507151224 59 0 0.0 8.0 0.00 0.40 0.27 60 1003.9
20260507151157 59 0 0.0 8.0 0.00 0.40 0.27 60 1004.0
20260507151123 59 0 0.0 8.0 0.00 0.41 0.27 58 1004.0
20260507151023 59 0 0.0 8.0 0.00 0.41 0.27 55 1003.9
20260507151019 59 360 0.0 8.0 0.00 0.41 0.27 53 1003.8
20260507151010 59 0 0.0 8.0 0.00 0.41 0.27 54 1003.8
20260507151006 59 0 0.0 8.0 0.00 0.41 0.27 54 1003.8
20260507151002 59 0 0.0 8.0 0.00 0.41 0.27 51 1003.8
20260507150955 59 0 0.0 8.0 0.00 0.41 0.27 53 1003.8
20260507150946 59 0 0.0 8.0 0.00 0.41 0.27 52 1003.7
20260507150522 59 0 0.0 8.0 0.00 0.41 0.27 50 1003.9
20260507150519 59 360 0.0 8.0 0.00 0.41 0.27 50 1003.9
20260507150426 59 350 0.0 5.0 0.00 0.41 0.27 55 1004.0
20260507150422 59 0 0.0 8.0 0.00 0.41 0.27 53 1003.9
20260507150321 59 0 0.0 5.0 0.00 0.41 0.27 52 1003.9
20260507150305 59 18 0.0 5.0 0.00 0.41 0.27 55 1003.9
20260507150120 59 0 0.0 0.0 0.00 0.41 0.27 57 1004.0
20260507150021 59 0 0.0 0.0 0.00 0.41 0.27 57 1004.0
20260507150019 59 360 0.0 1.0 0.00 0.41 0.27 57 1004.0
20260507145919 59 0 0.0 3.0 0.00 0.41 0.27 56 1004.0
20260507145818 59 0 0.0 3.0 0.00 0.42 0.27 56 1004.0
20260507145737 58 0 0.0 6.0 0.00 0.42 0.27 57 1004.0
20260507145732 58 0 0.0 6.0 0.00 0.42 0.27 57 1004.0
20260507145725 58 0 0.0 6.0 0.00 0.42 0.27 57 1004.0
20260507145535 58 360 0.0 6.0 0.00 0.42 0.27 54 1004.1
20260507145529 58 0 0.0 6.0 0.00 0.42 0.27 54 1004.0
20260507145416 58 0 0.0 6.0 0.00 0.42 0.27 56 1004.1
20260507145316 58 0 0.0 6.0 0.00 0.42 0.27 56 1004.1
20260507145306 58 0 0.0 6.0 0.00 0.42 0.27 56 1004.0
20260507145116 57 0 0.0 6.0 0.00 0.42 0.27 56 1004.1
20260507145019 57 360 0.0 6.0 0.00 0.42 0.27 55 1004.0
20260507145015 57 0 0.0 6.0 0.00 0.42 0.27 55 1004.0
20260507144914 57 0 0.0 6.0 0.00 0.42 0.27 56 1006.7
20260507144815 57 0 0.0 6.0 0.00 0.42 0.27 56 1006.7
20260507144714 57 0 0.0 3.0 0.00 0.42 0.27 59 1008.1
20260507144655 57 0 0.0 3.0 0.00 0.42 0.27 58 1008.1
20260507144629 57 0 0.0 3.0 0.00 0.42 0.27 59 1008.1
20260507144623 57 0 0.0 3.0 0.00 0.42 0.27 58 1008.1
20260507144519 57 360 0.0 3.0 0.00 0.42 0.27 59 1008.1
20260507144413 57 0 0.0 3.0 0.00 0.42 0.27 57 1008.1
20260507144312 57 0 0.0 3.0 0.00 0.43 0.27 55 1008.1
20260507144212 57 0 0.0 3.0 0.00 0.43 0.27 56 1008.1
20260507144156 57 0 0.0 3.0 0.00 0.43 0.27 55 1008.1
20260507144112 58 0 0.0 3.0 0.00 0.43 0.27 56 1008.2
20260507144019 58 360 0.0 5.0 0.00 0.43 0.27 57 1008.1
20260507144009 58 0 0.0 5.0 0.00 0.43 0.27 57 1008.2
20260507143923 57 0 0.0 5.0 0.00 0.43 0.27 59 1008.1
20260507143917 57 0 0.0 5.0 0.00 0.43 0.27 61 1008.1
20260507143708 57 0 0.0 5.0 0.00 0.43 0.27 57 1008.1
20260507143655 57 0 0.0 6.0 0.00 0.43 0.27 57 1008.1
20260507143621 56 0 0.0 6.0 0.00 0.43 0.27 62 1008.1
20260507143616 57 0 0.0 6.0 0.00 0.43 0.27 57 1008.1
20260507143549 56 360 0.0 6.0 0.00 0.43 0.27 62 1008.1
20260507143420 56 0 0.0 6.0 0.00 0.44 0.27 60 1008.1
20260507143414 56 0 0.0 6.0 0.00 0.44 0.27 61 1008.1
20260507143206 56 0 0.0 6.0 0.00 0.44 0.27 59 1008.3
20260507143154 56 0 0.0 6.0 0.00 0.44 0.27 59 1008.3
20260507143118 56 0 0.0 6.0 0.00 0.44 0.27 59 1008.3
20260507143113 56 0 0.0 6.0 0.00 0.44 0.27 59 1008.2
20260507143019 56 360 0.0 6.0 0.00 0.44 0.27 59 1008.3
20260507142902 56 0 0.0 6.0 0.00 0.44 0.27 59 1008.3
20260507142802 56 0 0.0 6.0 0.00 0.44 0.27 59 1004.0
20260507142653 56 0 0.0 6.0 0.00 0.45 0.27 61 1004.0
20260507142602 56 9 0.0 4.0 0.00 0.45 0.27 60 1004.2
20260507142550 56 22 0.0 4.0 0.00 0.45 0.27 60 1007.9
20260507142502 56 22 0.0 5.0 0.00 0.45 0.27 60 1007.9
20260507142401 56 284 0.0 5.0 0.00 0.45 0.27 60 1007.9
20260507142301 56 316 0.0 5.0 0.00 0.45 0.27 59 1007.9
20260507142156 56 342 0.0 5.0 0.00 0.45 0.27 60 1007.9
20260507142127 56 9 0.0 5.0 0.00 0.45 0.27 59 1007.0
20260507142123 56 0 0.0 5.0 0.00 0.45 0.27 61 1007.0
20260507142117 56 295 0.0 5.0 0.00 0.45 0.27 60 1007.9
20260507142019 56 9 0.0 4.0 0.00 0.45 0.27 59 1007.0
20260507141757 56 0 0.0 5.0 0.00 0.45 0.27 59 1007.3
20260507141653 56 0 0.0 5.0 0.00 0.45 0.27 59 1005.1
20260507141556 56 0 0.0 5.0 0.00 0.45 0.27 59 1005.1
20260507141519 56 360 0.0 5.0 0.00 0.45 0.27 60 1005.1
20260507141455 56 0 1.0 5.0 0.00 0.45 0.27 60 1005.1
20260507141409 57 0 1.0 8.0 0.00 0.45 0.27 58 1005.4
20260507141355 56 0 1.0 8.0 0.00 0.45 0.27 59 1005.1
20260507141306 57 0 1.0 8.0 0.00 0.45 0.27 60 1005.1
20260507141257 57 0 1.0 8.0 0.00 0.45 0.27 58 1005.4
20260507141055 57 0 1.0 8.0 0.00 0.45 0.27 61 1007.3
20260507141019 57 360 0.0 8.0 0.00 0.45 0.27 61 1007.3
20260507140954 57 0 1.0 8.0 0.00 0.45 0.27 61 1007.3
20260507140854 57 0 1.0 9.0 0.00 0.45 0.27 61 1007.4
20260507140752 57 0 2.0 10.0 0.00 0.45 0.27 61 1007.4
20260507140650 57 0 2.0 10.0 0.00 0.45 0.27 62 1004.2
20260507140551 57 0 2.0 10.0 0.00 0.45 0.27 62 1004.2
20260507140519 57 360 0.0 10.0 0.00 0.45 0.27 61 1004.2
20260507140451 57 0 2.0 10.0 0.00 0.45 0.27 61 1004.2
20260507140351 57 0 2.0 10.0 0.00 0.45 0.27 63 1004.2
20260507140251 57 323 2.0 10.0 0.00 0.45 0.27 61 1004.2
20260507140151 57 306 2.0 10.0 0.00 0.45 0.27 61 1004.2
20260507140111 57 309 3.0 10.0 0.00 0.45 0.27 62 1004.2
20260507140019 57 309 0.0 10.0 0.00 0.45 0.27 61 1004.2
20260507135958 57 309 3.0 10.0 0.00 0.45 0.27 61 1004.2
20260507135747 57 20 2.0 5.0 0.00 0.45 0.27 69 1004.2
20260507135653 57 17 2.0 6.0 0.00 0.45 0.27 66 1004.2
20260507135646 57 342 2.0 6.0 0.00 0.45 0.27 66 1004.2
20260507135546 56 351 2.0 6.0 0.00 0.45 0.27 65 1004.5
20260507135519 56 5 1.0 6.0 0.00 0.45 0.27 65 1004.9
20260507135445 56 5 2.0 6.0 0.00 0.45 0.27 66 1004.8
20260507135420 56 317 2.0 6.0 0.00 0.45 0.27 67 1004.6
20260507135345 56 288 2.0 6.0 0.00 0.45 0.27 66 1004.8
20260507135313 55 319 2.0 9.0 0.00 0.45 0.27 68 1005.4
20260507135308 56 295 2.0 6.0 0.00 0.45 0.27 67 1004.8
20260507135153 56 316 2.0 6.0 0.00 0.45 0.27 67 1004.6
20260507135019 55 332 5.0 9.0 0.00 0.45 0.27 68 1005.5
20260507134942 55 319 2.0 9.0 0.00 0.45 0.27 71 1005.4
20260507134842 55 0 3.0 9.0 0.00 0.45 0.27 70 1005.4
20260507134742 55 30 3.0 9.0 0.00 0.45 0.27 70 1004.8
20260507134641 55 0 3.0 9.0 0.00 0.45 0.27 72 1005.0
20260507134556 54 0 4.0 10.0 0.00 0.45 0.27 68 1005.0
20260507134550 54 0 3.0 9.0 0.00 0.45 0.27 70 1005.0
20260507134519 54 360 1.0 10.0 0.00 0.45 0.27 70 1005.2
20260507134340 54 0 4.0 10.0 0.00 0.45 0.27 67 1005.0
20260507134240 54 0 4.0 10.0 0.00 0.45 0.27 67 1004.9
20260507134139 54 0 4.0 10.0 0.00 0.45 0.27 67 1004.8
20260507134038 54 0 4.0 10.0 0.00 0.45 0.27 68 1006.9
20260507134019 54 360 1.0 10.0 0.00 0.45 0.27 66 1007.0
20260507133937 54 0 4.0 10.0 0.00 0.45 0.27 67 1006.9
20260507133907 54 0 4.0 10.0 0.00 0.45 0.27 66 1005.1
20260507133838 54 0 4.0 10.0 0.00 0.45 0.27 67 1005.1
20260507133752 54 0 4.0 10.0 0.00 0.45 0.27 67 1005.1
20260507133639 54 0 4.0 10.0 0.00 0.45 0.27 66 1005.1
20260507133538 54 0 3.0 10.0 0.00 0.45 0.27 66 1005.1
20260507133519 55 360 5.0 9.0 0.00 0.45 0.27 67 1005.3
20260507133438 55 0 3.0 9.0 0.00 0.45 0.27 67 1005.1
20260507133336 55 5 3.0 9.0 0.00 0.45 0.27 67 1005.1
20260507133251 54 339 3.0 9.0 0.00 0.45 0.27 68 1005.1
20260507133242 54 319 3.0 9.0 0.00 0.45 0.27 67 1005.1
20260507133035 54 281 3.0 9.0 0.00 0.45 0.27 67 1005.1
20260507133019 54 290 2.0 9.0 0.00 0.45 0.27 68 1005.4
20260507132934 54 278 3.0 9.0 0.00 0.45 0.27 68 1005.2
20260507132834 54 298 3.0 9.0 0.00 0.45 0.27 69 1005.5
20260507132732 54 316 3.0 9.0 0.00 0.45 0.27 69 1005.4
20260507132641 54 321 3.0 9.0 0.00 0.45 0.27 68 1005.7
20260507132631 54 328 3.0 9.0 0.00 0.45 0.27 68 1005.7
20260507132544 53 337 3.0 9.0 0.00 0.45 0.27 69 1006.8
20260507132540 53 250 3.0 9.0 0.00 0.45 0.27 68 1005.5
20260507132519 53 291 7.0 9.0 0.00 0.45 0.27 68 1006.8
20260507132331 53 306 3.0 6.0 0.00 0.45 0.27 69 1006.8
20260507132231 53 313 3.0 6.0 0.00 0.45 0.27 70 1005.5
20260507132142 53 342 3.0 6.0 0.00 0.45 0.27 73 1005.5
20260507132130 53 340 3.0 6.0 0.00 0.45 0.27 73 1005.5
20260507132029 53 0 3.0 6.0 0.00 0.45 0.27 73 1005.7
20260507132019 53 360 3.0 6.0 0.00 0.45 0.27 73 1005.8
20260507131941 53 0 3.0 6.0 0.00 0.45 0.27 72 1005.8
20260507131936 53 0 3.0 6.0 0.00 0.45 0.27 74 1005.8
20260507131727 53 0 3.0 6.0 0.00 0.45 0.27 71 1005.8
20260507131626 53 0 3.0 6.0 0.00 0.45 0.27 72 1005.9
20260507131527 53 0 3.0 6.0 0.00 0.45 0.27 72 1005.9
20260507131519 53 360 4.0 6.0 0.00 0.45 0.27 72 1005.9
20260507131426 53 0 3.0 9.0 0.00 0.45 0.27 74 1005.9
20260507131338 53 0 3.0 9.0 0.00 0.45 0.27 75 1006.8
20260507131333 53 0 3.0 9.0 0.00 0.45 0.27 75 1006.8
20260507131138 52 0 3.0 9.0 0.00 0.45 0.27 75 1005.9
20260507131124 52 0 3.0 10.0 0.00 0.45 0.27 75 1005.9
20260507131025 52 0 3.0 10.0 0.00 0.45 0.27 76 1005.9
20260507131019 52 360 2.0 10.0 0.00 0.45 0.27 76 1005.9
20260507130925 52 0 3.0 10.0 0.00 0.45 0.27 77 1005.9
20260507130836 52 0 3.0 10.0 0.00 0.45 0.27 78 1006.4
20260507130832 52 0 3.0 10.0 0.00 0.45 0.27 78 1006.3
20260507130623 52 0 3.0 10.0 0.00 0.45 0.27 79 1005.9
20260507130522 52 0 3.0 10.0 0.00 0.45 0.27 80 1006.1
20260507130519 52 360 4.0 10.0 0.00 0.45 0.27 80 1006.2
20260507130421 51 0 3.0 10.0 0.00 0.45 0.27 81 1006.1
20260507130321 51 0 3.0 10.0 0.00 0.45 0.27 81 1006.1
20260507130220 51 0 2.0 10.0 0.00 0.45 0.27 82 1006.1
20260507130135 51 0 2.0 10.0 0.00 0.45 0.27 85 1008.7
20260507130119 51 0 2.0 8.0 0.00 0.45 0.27 85 1008.7
20260507130034 51 360 5.0 5.0 0.00 0.45 0.27 89 1008.8
20260507130030 51 0 1.0 5.0 0.00 0.45 0.27 89 1008.7
20260507130026 51 0 1.0 5.0 0.00 0.45 0.27 89 1008.7
20260507125816 51 0 1.0 5.0 0.00 0.45 0.27 90 1008.7
20260507125716 51 0 1.0 4.0 0.00 0.45 0.27 90 1008.7
20260507125615 51 0 1.0 4.0 0.00 0.45 0.27 90 1008.7
20260507125542 51 0 1.0 5.0 0.00 0.45 0.27 90 1008.7
20260507125538 51 0 2.0 5.0 0.00 0.45 0.27 90 1007.8
20260507125532 51 0 1.0 4.0 0.00 0.45 0.27 90 1008.7
20260507125519 51 360 0.0 4.0 0.00 0.45 0.27 90 1008.8
20260507125214 50 0 2.0 5.0 0.00 0.45 0.27 90 1007.8
20260507125134 50 0 2.0 5.0 0.00 0.45 0.27 90 1007.8
20260507125126 50 0 2.0 5.0 0.00 0.45 0.27 90 1008.8
20260507125122 50 0 2.0 5.0 0.00 0.45 0.27 90 1008.8
20260507125020 50 360 1.0 5.0 0.00 0.45 0.27 90 1008.9
20260507124912 50 0 2.0 5.0 0.00 0.45 0.27 90 1009.1
20260507124825 50 0 1.0 5.0 0.00 0.45 0.27 91 1008.8
20260507124821 50 0 2.0 5.0 0.00 0.45 0.27 91 1009.1
20260507124631 50 0 1.0 5.0 0.00 0.45 0.27 92 1008.8
20260507124611 50 0 1.0 5.0 0.00 0.45 0.27 92 1009.2
20260507124519 50 360 2.0 5.0 0.00 0.45 0.27 92 1009.4
20260507124511 50 0 1.0 5.0 0.00 0.45 0.27 92 1009.3
20260507124409 50 0 1.0 4.0 0.00 0.45 0.27 93 1009.3
20260507124309 50 0 1.0 4.0 0.00 0.45 0.27 93 1009.2
20260507124208 50 0 1.0 4.0 0.00 0.45 0.27 93 1009.3
20260507124129 50 0 1.0 4.0 0.00 0.45 0.27 93 1009.3
20260507124108 50 0 1.0 4.0 0.00 0.45 0.27 93 1009.4
20260507124019 50 360 1.0 4.0 0.00 0.45 0.27 93 1009.5
20260507124008 50 0 0.0 4.0 0.00 0.45 0.27 93 1009.4
20260507123908 50 0 0.0 4.0 0.00 0.45 0.27 94 1009.4
20260507123820 50 0 0.0 4.0 0.00 0.45 0.27 94 1009.4
20260507123816 50 0 0.0 4.0 0.00 0.45 0.27 94 1009.4
20260507123629 50 0 0.0 4.0 0.00 0.45 0.27 94 1009.4
20260507123606 50 0 0.0 4.0 0.00 0.45 0.27 94 1009.5
20260507123549 50 360 0.0 4.0 0.00 0.45 0.27 94 1009.0
20260507123506 50 0 0.0 4.0 0.00 0.45 0.27 94 1008.9
20260507123406 50 0 0.0 4.0 0.00 0.45 0.27 95 1009.3
20260507123318 50 0 0.0 3.0 0.00 0.45 0.27 95 1009.3
20260507123314 50 0 0.0 3.0 0.00 0.45 0.27 95 1009.3
20260507123129 50 0 0.0 3.0 0.00 0.45 0.27 95 1009.3
20260507123105 50 0 0.0 3.0 0.00 0.45 0.27 95 1009.2
20260507123019 50 360 0.0 3.0 0.00 0.45 0.27 95 1009.4
20260507123003 50 0 0.0 3.0 0.00 0.45 0.27 95 1009.3
20260507122902 50 0 0.0 3.0 0.00 0.45 0.27 95 1009.2
20260507122834 50 0 1.0 4.0 0.00 0.45 0.27 95 1009.3
20260507122830 50 0 1.0 4.0 0.00 0.45 0.27 95 1009.3
20260507122824 50 0 1.0 3.0 0.00 0.45 0.27 95 1009.3
20260507122707 50 0 1.0 4.0 0.00 0.45 0.27 95 1009.3
20260507122519 50 360 0.0 4.0 0.00 0.45 0.27 95 1009.5
20260507122500 50 0 1.0 4.0 0.00 0.45 0.27 95 1009.4
20260507122412 50 0 0.0 4.0 0.00 0.45 0.27 95 1009.3
20260507122408 50 0 1.0 4.0 0.00 0.45 0.27 95 1009.3
20260507122158 50 0 0.0 4.0 0.00 0.45 0.27 95 1009.3
20260507122126 50 0 0.0 4.0 0.00 0.45 0.27 95 1009.3
20260507122111 50 0 0.0 4.0 0.00 0.45 0.27 95 1009.3
20260507122107 50 0 0.0 4.0 0.00 0.45 0.27 95 1009.3
20260507122019 50 360 0.0 4.0 0.00 0.45 0.27 95 1009.4
20260507121857 50 0 1.0 4.0 0.00 0.45 0.27 95 1009.3
20260507121809 50 0 1.0 3.0 0.00 0.45 0.27 95 1009.3
20260507121805 50 0 1.0 4.0 0.00 0.45 0.27 95 1009.3
20260507121628 50 0 1.0 3.0 0.00 0.45 0.27 95 1009.3
20260507121555 50 0 1.0 3.0 0.00 0.45 0.27 95 1009.2
20260507121519 50 360 0.0 3.0 0.00 0.45 0.27 95 1009.3
20260507121455 50 0 1.0 3.0 0.00 0.45 0.27 95 1009.2
20260507121355 50 0 1.0 3.0 0.00 0.45 0.27 95 1009.1
20260507121349 50 0 1.0 3.0 0.00 0.45 0.27 95 1009.0
20260507121254 50 0 1.0 3.0 0.00 0.45 0.27 95 1009.1
20260507121234 50 0 1.0 3.0 0.00 0.45 0.27 95 1009.0
20260507121054 50 0 1.0 3.0 0.00 0.45 0.27 95 1009.1
20260507121019 50 360 0.0 3.0 0.00 0.45 0.27 95 1009.2
20260507120954 50 0 1.0 3.0 0.00 0.45 0.27 95 1009.1
20260507120851 50 0 1.0 3.0 0.00 0.45 0.27 95 1009.1
20260507120751 50 0 1.0 3.0 0.00 0.45 0.27 95 1009.1
20260507120625 50 0 1.0 3.0 0.00 0.45 0.27 95 1009.1
20260507120550 50 0 1.0 3.0 0.00 0.45 0.27 95 1009.1
20260507120519 50 360 0.0 3.0 0.00 0.45 0.27 95 1009.2
20260507120502 50 0 1.0 3.0 0.00 0.45 0.27 95 1009.2
20260507120458 50 0 1.0 3.0 0.00 0.45 0.27 95 1009.1
20260507120249 50 0 1.0 3.0 0.00 0.45 0.27 95 1009.2
20260507120126 50 0 0.0 3.0 0.00 0.45 0.27 96 1009.2
20260507120047 50 0 0.0 3.0 0.00 0.45 0.27 96 1009.2
20260507120034 50 360 1.0 3.0 0.00 0.45 0.27 96 1009.4
20260507120009 50 0 0.0 3.0 0.00 0.45 0.27 96 1009.3
20260507115856 51 0 0.0 3.0 0.00 0.45 0.27 96 1009.3
20260507115646 51 0 0.0 3.0 0.00 0.45 0.27 96 1009.3
20260507115625 51 0 0.0 2.0 0.00 0.45 0.27 96 1009.3
20260507115546 51 0 0.0 2.0 0.00 0.45 0.27 96 1009.4
20260507115519 51 360 0.0 2.0 0.00 0.45 0.27 96 1009.6
20260507115444 51 0 0.0 2.0 0.00 0.45 0.27 96 1009.4
20260507115344 51 0 0.0 2.0 0.00 0.45 0.27 96 1009.4
20260507115257 51 0 0.0 1.0 0.00 0.45 0.27 96 1009.4
20260507115253 51 0 0.0 1.0 0.00 0.45 0.27 96 1009.4
20260507115124 51 0 0.0 1.0 0.00 0.45 0.27 96 1009.4
20260507115043 51 0 0.0 1.0 0.00 0.45 0.27 96 1009.4
20260507115019 51 360 0.0 1.0 0.00 0.45 0.27 96 1009.6
20260507114943 51 0 0.0 1.0 0.00 0.45 0.27 96 1009.4
20260507114841 51 0 0.0 1.0 0.00 0.45 0.27 96 1009.4
20260507114755 51 0 0.0 2.0 0.00 0.45 0.27 96 1009.3
20260507114751 51 0 0.0 1.0 0.00 0.45 0.27 96 1009.3
20260507114622 51 0 0.0 2.0 0.00 0.45 0.27 96 1009.3
20260507114603 51 0 0.0 2.0 0.00 0.45 0.27 96 1009.3
20260507114519 51 360 0.0 2.0 0.00 0.45 0.27 96 1009.5
20260507114450 51 0 0.0 2.0 0.00 0.45 0.27 96 1009.3
20260507114307 51 0 0.0 2.0 0.00 0.45 0.27 96 1009.3
20260507114145 51 0 0.0 2.0 0.00 0.45 0.27 96 1009.3
20260507114019 50 360 0.0 2.0 0.00 0.45 0.27 96 1009.5
20260507113938 50 0 0.0 2.0 0.00 0.45 0.27 96 1009.4
20260507113838 50 0 0.0 2.0 0.00 0.45 0.27 96 1009.4
20260507113737 50 0 0.0 2.0 0.00 0.45 0.27 96 1009.4
20260507113620 50 0 0.0 0.0 0.00 0.45 0.27 96 1009.4
20260507113536 50 0 0.0 0.0 0.00 0.45 0.27 96 1009.4
20260507113534 50 360 0.0 0.0 0.00 0.45 0.27 96 1009.4
20260507113435 50 0 0.0 0.0 0.00 0.45 0.27 96 1009.3
20260507113344 50 0 0.0 0.0 0.00 0.45 0.27 96 1009.3
20260507113335 50 0 0.0 0.0 0.00 0.45 0.27 96 1009.3
20260507113235 50 0 0.0 0.0 0.00 0.45 0.27 96 1009.3
20260507113226 50 0 0.0 0.0 0.00 0.45 0.27 96 1009.3
20260507113034 50 0 0.0 0.0 0.00 0.45 0.27 96 1009.3
20260507113019 50 360 0.0 0.0 0.00 0.45 0.27 96 1009.4
20260507112934 50 0 0.0 0.0 0.00 0.45 0.27 96 1009.3
20260507112833 50 0 0.0 0.0 0.00 0.45 0.27 96 1009.2
20260507112733 50 0 0.0 1.0 0.00 0.45 0.27 96 1009.2
20260507112616 50 0 0.0 1.0 0.00 0.45 0.27 96 1009.2
20260507112546 50 0 0.0 1.0 0.00 0.45 0.27 96 1009.2
20260507112541 50 0 0.0 1.0 0.00 0.45 0.27 96 1009.2
20260507112519 50 360 0.0 1.0 0.00 0.45 0.27 96 1009.3
20260507112331 50 0 0.0 1.0 0.00 0.45 0.27 96 1009.1
20260507112230 50 0 0.0 1.0 0.00 0.45 0.27 96 1009.0
20260507112150 50 0 0.0 1.0 0.00 0.45 0.27 96 1009.0
20260507112137 50 0 0.0 1.0 0.00 0.45 0.27 96 1009.0
20260507112019 50 360 0.0 1.0 0.00 0.45 0.27 96 1009.1
20260507111930 50 0 0.0 1.0 0.00 0.45 0.27 96 1009.0
20260507111851 50 0 0.0 1.0 0.00 0.45 0.27 96 1009.0
20260507111738 50 0 0.0 1.0 0.00 0.45 0.27 96 1009.0
20260507111612 50 0 0.0 1.0 0.00 0.45 0.27 96 1009.0
20260507111542 50 0 0.0 1.0 0.00 0.45 0.27 96 1009.0
20260507111538 50 0 0.0 1.0 0.00 0.45 0.27 96 1009.0
20260507111519 50 360 0.0 1.0 0.00 0.45 0.27 96 1009.1
20260507111327 50 0 0.0 1.0 0.00 0.45 0.27 96 1008.9
20260507111300 50 0 0.0 1.0 0.00 0.45 0.27 96 1008.9
20260507111255 50 0 0.0 1.0 0.00 0.45 0.27 96 1008.9
20260507111250 50 0 0.0 1.0 0.00 0.45 0.27 96 1008.9
20260507111133 50 0 0.0 1.0 0.00 0.45 0.27 96 1008.9
20260507111020 50 360 0.0 1.0 0.00 0.45 0.27 96 1009.1
20260507110927 50 0 0.0 1.0 0.00 0.45 0.27 96 1008.9
20260507110826 50 0 0.0 1.0 0.00 0.45 0.27 96 1008.9
20260507110725 50 0 0.0 1.0 0.00 0.45 0.27 96 1008.9
20260507110624 50 0 0.0 0.0 0.00 0.45 0.27 96 1008.9
20260507110612 50 0 0.0 0.0 0.00 0.45 0.27 96 1008.9
20260507110525 50 0 0.0 0.0 0.00 0.45 0.27 96 1008.9
20260507110519 50 360 0.0 0.0 0.00 0.45 0.27 96 1009.1
20260507110423 50 0 0.0 0.0 0.00 0.45 0.27 96 1008.9
20260507110323 50 0 0.0 0.0 0.00 0.45 0.27 96 1008.9
20260507110223 50 0 0.0 0.0 0.00 0.45 0.27 96 1008.9
20260507110110 50 0 0.0 0.0 0.00 0.45 0.27 96 1008.9
20260507110057 50 0 0.0 0.0 0.00 0.45 0.27 96 1008.8
20260507110051 50 0 0.0 0.0 0.00 0.45 0.27 96 1008.9
20260507110019 50 360 0.0 0.0 0.00 0.45 0.27 96 1009.1
20260507105938 50 0 0.0 0.0 0.00 0.45 0.27 96 1008.9
20260507105619 50 0 0.0 0.0 0.00 0.45 0.27 96 1008.7
20260507105609 50 0 0.0 0.0 0.00 0.45 0.27 96 1008.8
20260507105519 50 360 0.0 0.0 0.00 0.45 0.27 96 1009.0
20260507105418 50 0 0.0 0.0 0.00 0.45 0.27 96 1008.8
20260507105317 50 0 0.0 0.0 0.00 0.45 0.27 96 1008.7
20260507105217 50 0 0.0 0.0 0.00 0.45 0.27 96 1008.7
20260507105107 50 0 0.0 0.0 0.00 0.45 0.27 96 1008.6
20260507105019 50 360 0.0 0.0 0.00 0.45 0.27 96 1008.8
20260507105016 50 0 0.0 0.0 0.00 0.45 0.27 96 1008.6
20260507104916 50 0 0.0 0.0 0.00 0.45 0.27 96 1008.6
20260507104816 50 0 0.0 0.0 0.00 0.45 0.27 96 1008.5
20260507104714 50 0 0.0 0.0 0.00 0.45 0.27 96 1008.5
20260507104607 50 0 0.0 0.0 0.00 0.45 0.27 96 1008.5
20260507104534 50 360 0.0 0.0 0.00 0.45 0.27 96 1008.7
20260507104515 50 0 0.0 0.0 0.00 0.45 0.27 96 1008.5
20260507104414 50 0 0.0 0.0 0.00 0.45 0.27 96 1008.5
20260507104312 50 0 0.0 0.0 0.00 0.45 0.27 96 1008.4
20260507104212 50 0 0.0 0.0 0.00 0.45 0.27 96 1008.4
20260507104106 50 0 0.0 0.0 0.00 0.45 0.27 96 1008.4
20260507104034 50 360 0.0 0.0 0.00 0.45 0.27 96 1008.6
20260507104024 49 0 0.0 0.0 0.00 0.45 0.27 96 1008.4
20260507104020 49 0 0.0 0.0 0.00 0.45 0.27 96 1008.4
20260507103810 49 0 0.0 0.0 0.00 0.45 0.27 96 1008.5
20260507103710 49 0 0.0 1.0 0.00 0.45 0.27 96 1008.4
20260507103630 49 0 0.0 1.0 0.00 0.45 0.27 96 1008.5
20260507103618 49 0 0.0 1.0 0.00 0.45 0.27 96 1008.5
20260507103520 50 360 0.0 1.0 0.00 0.45 0.27 96 1008.7
20260507103409 49 0 0.0 1.0 0.00 0.45 0.27 96 1008.5
20260507103309 49 0 0.0 1.0 0.00 0.45 0.27 96 1008.4
20260507103208 49 0 0.0 1.0 0.00 0.45 0.27 96 1008.4
20260507103103 49 0 0.0 1.0 0.00 0.45 0.27 96 1008.4
20260507103021 49 360 0.0 1.0 0.00 0.45 0.27 96 1008.4
20260507103005 49 0 0.0 1.0 0.00 0.45 0.27 96 1008.3
20260507102905 49 0 0.0 1.0 0.00 0.45 0.27 96 1008.3
20260507102805 49 0 0.0 1.0 0.00 0.45 0.27 95 1008.3
20260507102704 49 0 0.0 0.0 0.00 0.45 0.27 95 1008.3
20260507102605 49 0 0.0 0.0 0.00 0.45 0.27 95 1008.3
20260507102519 49 360 0.0 0.0 0.00 0.45 0.27 95 1008.4
20260507102503 49 0 0.0 0.0 0.00 0.45 0.27 95 1008.3
20260507102402 49 0 0.0 0.0 0.00 0.45 0.27 95 1008.3
20260507102306 49 0 0.0 0.0 0.00 0.45 0.27 95 1008.3
20260507102216 49 0 0.0 0.0 0.00 0.45 0.27 96 1008.4
20260507102207 49 0 0.0 0.0 0.00 0.45 0.27 96 1008.3
20260507102019 49 360 0.0 0.0 0.00 0.45 0.27 96 1008.4
20260507102001 49 0 0.0 0.0 0.00 0.45 0.27 96 1008.3
20260507101900 49 0 0.0 0.0 0.00 0.45 0.27 96 1008.3
20260507101800 49 0 0.0 0.0 0.00 0.45 0.27 96 1008.3
20260507101659 49 0 0.0 0.0 0.00 0.45 0.27 96 1008.2
20260507101559 49 0 0.0 0.0 0.00 0.45 0.27 96 1008.2
20260507101534 49 360 0.0 0.0 0.00 0.45 0.27 96 1008.3
20260507101458 49 0 0.0 0.0 0.00 0.45 0.27 96 1008.2
20260507101358 49 0 0.0 0.0 0.00 0.45 0.27 96 1008.2
20260507101331 49 0 0.0 0.0 0.00 0.45 0.27 95 1008.2
20260507101327 49 0 0.0 0.0 0.00 0.45 0.27 95 1008.2
20260507101321 49 0 0.0 0.0 0.00 0.45 0.27 95 1008.2
20260507101203 49 0 0.0 0.0 0.00 0.45 0.27 95 1008.2
20260507101019 49 360 0.0 0.0 0.00 0.45 0.27 95 1008.3
20260507100957 49 0 0.0 0.0 0.00 0.45 0.27 95 1008.2
20260507100909 49 0 0.0 0.0 0.00 0.45 0.27 95 1008.0
20260507100905 49 0 0.0 0.0 0.00 0.45 0.27 95 1008.2
20260507100655 49 0 0.0 0.0 0.00 0.45 0.27 95 1008.0
20260507100555 49 0 0.0 0.0 0.00 0.45 0.27 95 1007.9
20260507100519 49 360 0.0 0.0 0.00 0.45 0.27 95 1008.1
20260507100454 49 0 0.0 0.0 0.00 0.45 0.27 95 1008.0
20260507100354 49 0 0.0 0.0 0.00 0.45 0.27 95 1008.0
20260507100253 49 0 0.0 0.0 0.00 0.45 0.27 95 1008.0
20260507100152 49 0 0.0 0.0 0.00 0.45 0.27 95 1007.9
20260507100053 49 0 0.0 0.0 0.00 0.45 0.27 95 1007.9
20260507100019 49 360 0.0 0.0 0.00 0.45 0.27 95 1008.0
20260507095952 49 0 0.0 0.0 0.00 0.45 0.27 95 1007.9
20260507095851 49 0 0.0 0.0 0.00 0.45 0.27 95 1007.9
20260507095750 49 0 0.0 0.0 0.00 0.45 0.27 95 1007.9
20260507095702 49 0 0.0 0.0 0.00 0.45 0.27 95 1007.9
20260507095653 49 0 0.0 0.0 0.00 0.45 0.27 95 1007.9
20260507095519 49 360 0.0 0.0 0.00 0.45 0.27 95 1008.1
20260507095447 49 0 0.0 0.0 0.00 0.45 0.27 95 1008.0
20260507095346 49 0 0.0 0.0 0.00 0.45 0.27 95 1008.0
20260507095246 49 0 0.0 0.0 0.00 0.45 0.27 95 1008.0
20260507095146 49 0 0.0 0.0 0.00 0.45 0.27 95 1008.1
20260507095046 49 0 0.0 0.0 0.00 0.45 0.27 95 1008.0
20260507095019 49 360 0.0 0.0 0.00 0.45 0.27 95 1008.2
20260507094946 49 0 0.0 0.0 0.00 0.45 0.27 95 1008.1
20260507094845 49 0 0.0 0.0 0.00 0.45 0.27 95 1008.0
20260507094759 49 0 0.0 0.0 0.00 0.45 0.27 95 1008.0
20260507094754 49 0 0.0 0.0 0.00 0.45 0.27 95 1008.0
20260507094603 49 0 0.0 0.0 0.00 0.45 0.27 95 1008.0
20260507094552 49 0 0.0 0.0 0.00 0.45 0.27 95 1008.0
20260507094519 49 360 0.0 0.0 0.00 0.45 0.27 95 1008.1
20260507094343 49 0 0.0 0.0 0.00 0.45 0.27 95 1007.9
20260507094316 49 0 0.0 0.0 0.00 0.45 0.27 95 1007.8
20260507094311 49 0 0.0 0.0 0.00 0.45 0.27 95 1007.7
20260507094306 49 0 0.0 0.0 0.00 0.45 0.27 95 1007.9
20260507094149 49 0 0.0 0.0 0.00 0.45 0.27 95 1007.7
20260507094020 49 360 0.0 0.0 0.00 0.45 0.27 95 1007.9
20260507093943 49 0 0.0 0.0 0.00 0.45 0.27 95 1007.8
20260507093842 49 0 0.0 0.0 0.00 0.45 0.27 95 1007.8
20260507093742 49 0 0.0 0.0 0.00 0.45 0.27 95 1007.8
20260507093641 49 0 0.0 0.0 0.00 0.45 0.27 95 1007.7
20260507093541 49 0 0.0 0.0 0.00 0.45 0.27 95 1007.8
20260507093534 49 360 0.0 0.0 0.00 0.45 0.27 95 1007.9
20260507093440 49 0 0.0 0.0 0.00 0.45 0.27 95 1007.8
20260507093340 49 0 0.0 0.0 0.00 0.45 0.27 95 1007.9
20260507093240 49 0 0.0 0.0 0.00 0.45 0.27 95 1007.9
20260507093141 49 0 0.0 0.0 0.00 0.45 0.27 95 1007.9
20260507093039 49 0 0.0 0.0 0.00 0.45 0.27 95 1007.9
20260507093019 49 360 0.0 0.0 0.00 0.45 0.27 95 1008.0
20260507092938 49 0 0.0 0.0 0.00 0.45 0.27 95 1007.9
20260507092838 49 0 0.0 0.0 0.00 0.45 0.27 95 1007.8
20260507092738 49 0 0.0 0.0 0.00 0.45 0.27 95 1007.7
20260507092637 49 0 0.0 0.0 0.00 0.45 0.27 95 1007.6
20260507092559 49 0 0.0 0.0 0.00 0.45 0.27 95 1007.6
20260507092519 49 360 0.0 0.0 0.00 0.45 0.27 95 1007.8
20260507092446 49 0 0.0 0.0 0.00 0.45 0.27 95 1007.6
20260507092249 49 0 0.0 0.0 0.00 0.45 0.27 95 1007.6
20260507092244 49 0 0.0 0.0 0.00 0.45 0.27 95 1007.6
20260507092049 49 0 0.0 0.0 0.00 0.45 0.27 95 1007.7
20260507092043 49 0 0.0 0.0 0.00 0.45 0.27 95 1007.6
20260507092019 49 360 0.0 0.0 0.00 0.45 0.27 95 1007.9
20260507091834 49 0 0.0 0.0 0.00 0.45 0.27 95 1007.7
20260507091733 49 0 0.0 0.0 0.00 0.45 0.27 95 1007.7
20260507091633 49 0 0.0 0.0 0.00 0.45 0.27 95 1007.7
20260507091532 49 0 0.0 0.0 0.00 0.45 0.27 95 1007.7
20260507091519 49 360 0.0 0.0 0.00 0.45 0.27 95 1007.8
20260507091432 49 0 0.0 0.0 0.00 0.45 0.27 95 1007.6
20260507091331 49 0 0.0 0.0 0.00 0.45 0.27 95 1007.7
20260507091231 49 0 0.0 0.0 0.00 0.45 0.27 95 1007.6
20260507091131 49 0 0.0 0.0 0.00 0.45 0.27 95 1007.6
20260507091044 49 0 0.0 0.0 0.00 0.45 0.27 95 1007.6
20260507091039 49 0 0.0 0.0 0.00 0.45 0.27 95 1007.5
20260507091019 49 360 0.0 0.0 0.00 0.45 0.27 95 1007.8
20260507090829 49 0 0.0 0.0 0.00 0.45 0.27 95 1007.6
20260507090729 49 0 0.0 0.0 0.00 0.45 0.27 95 1007.6
20260507090628 49 0 0.0 0.0 0.00 0.45 0.27 95 1007.6
20260507090542 49 0 0.0 0.0 0.00 0.45 0.27 95 1007.5
20260507090537 49 0 0.0 0.0 0.00 0.45 0.27 95 1007.5
20260507090519 49 360 0.0 0.0 0.00 0.45 0.27 95 1007.7
20260507090327 49 0 0.0 0.0 0.00 0.45 0.27 95 1007.4
20260507090227 49 0 0.0 0.0 0.00 0.45 0.27 95 1007.4
20260507090154 49 0 0.0 0.0 0.00 0.45 0.27 95 1007.5
20260507090149 49 0 0.0 0.0 0.00 0.45 0.27 95 1007.4
20260507090141 49 0 0.0 0.0 0.00 0.45 0.27 95 1007.4
20260507090019 49 360 0.0 0.0 0.00 0.45 0.27 95 1007.7
20260507085837 49 0 0.0 0.0 0.00 0.45 0.27 95 1007.5
20260507085831 49 0 0.0 0.0 0.00 0.45 0.27 95 1007.5
20260507085622 49 0 0.0 0.0 0.00 0.45 0.27 95 1007.5
20260507085521 49 0 0.0 0.0 0.00 0.45 0.27 95 1007.5
20260507085519 49 360 0.0 0.0 0.00 0.45 0.27 95 1007.6
20260507085421 49 0 0.0 0.0 0.00 0.45 0.27 95 1007.5
20260507085322 49 0 0.0 0.0 0.00 0.45 0.27 95 1007.5
20260507085221 49 0 0.0 0.0 0.00 0.45 0.27 95 1007.6
20260507085121 49 0 0.0 0.0 0.00 0.45 0.27 95 1007.6
20260507085034 49 360 0.0 0.0 0.00 0.45 0.27 95 1007.7
20260507085020 49 0 0.0 0.0 0.00 0.45 0.27 95 1007.6
20260507084920 49 0 0.0 0.0 0.00 0.45 0.27 95 1007.6
20260507084820 49 0 0.0 0.0 0.00 0.45 0.27 95 1007.6
20260507084735 49 0 0.0 0.0 0.00 0.45 0.27 95 1007.5
20260507084729 49 0 0.0 0.0 0.00 0.45 0.27 95 1007.6
20260507084519 49 0 0.0 0.0 0.00 0.45 0.27 95 1007.6
20260507084418 49 0 0.0 0.0 0.00 0.45 0.27 95 1007.6
20260507084316 49 0 0.0 0.0 0.00 0.45 0.27 95 1007.6
20260507084301 49 0 0.0 0.0 0.00 0.45 0.27 95 1007.6
20260507084216 49 0 0.0 0.0 0.00 0.45 0.27 95 1007.7
20260507084148 49 0 0.0 0.0 0.00 0.45 0.27 95 1007.6
20260507084028 49 0 0.0 0.0 0.00 0.45 0.27 95 1007.7
20260507084023 49 0 0.0 0.0 0.00 0.45 0.27 95 1007.6
20260507084019 49 360 0.0 0.0 0.00 0.45 0.27 95 1007.8
20260507083814 49 0 0.0 0.0 0.00 0.45 0.27 95 1007.6
20260507083714 49 0 0.0 0.0 0.00 0.45 0.27 95 1007.7
20260507083653 49 0 0.0 0.0 0.00 0.45 0.27 95 1007.7
20260507083550 49 360 0.0 0.0 0.00 0.45 0.27 95 1007.8
20260507083536 49 0 0.0 0.0 0.00 0.45 0.27 95 1007.7
20260507083531 49 0 0.0 0.0 0.00 0.45 0.27 95 1007.7
20260507083239 49 0 0.0 0.0 0.00 0.45 0.27 95 1007.7
20260507083125 49 0 0.0 0.0 0.00 0.45 0.27 95 1007.7
20260507083117 49 0 0.0 0.0 0.00 0.45 0.27 95 1007.7
20260507083019 49 360 0.0 0.0 0.00 0.45 0.27 95 1007.9
20260507082910 49 0 0.0 0.0 0.00 0.45 0.27 95 1007.7
20260507082811 49 0 0.0 0.0 0.01 0.45 0.27 95 1007.7
20260507082710 49 0 0.0 0.0 0.01 0.45 0.27 95 1007.7
20260507082610 49 0 0.0 0.0 0.01 0.45 0.27 95 1007.7
20260507082519 49 360 0.0 0.0 0.01 0.45 0.27 95 1007.8
20260507082509 49 0 0.0 0.0 0.01 0.45 0.27 95 1007.7
20260507082409 49 0 0.0 0.0 0.01 0.45 0.27 95 1007.7
20260507082311 49 0 0.0 0.0 0.01 0.45 0.27 95 1007.8
20260507082238 49 0 0.0 0.0 0.02 0.45 0.27 95 1007.8
20260507082124 49 0 0.0 0.0 0.02 0.45 0.27 95 1007.8
20260507082117 49 0 0.0 0.0 0.02 0.45 0.27 95 1007.8
20260507082019 49 360 0.0 0.0 0.02 0.45 0.27 95 1007.8
20260507081916 49 0 0.0 0.0 0.02 0.45 0.27 95 1007.8
20260507081906 49 0 0.0 0.0 0.03 0.45 0.27 95 1007.8
20260507081708 49 0 0.0 0.0 0.03 0.45 0.27 95 1007.8
20260507081646 49 0 0.0 0.0 0.03 0.45 0.27 95 1007.8
20260507081519 49 360 0.0 0.0 0.03 0.45 0.27 95 1007.9
20260507081506 49 0 0.0 0.0 0.04 0.45 0.27 95 1007.8
20260507081404 49 0 0.0 0.0 0.04 0.45 0.27 95 1007.7
20260507081304 49 0 0.0 0.0 0.04 0.45 0.27 95 1007.7
20260507081237 49 0 0.0 0.0 0.05 0.45 0.27 95 1007.7
20260507081233 49 0 0.0 0.0 0.05 0.45 0.27 95 1007.6
20260507081227 49 0 0.0 0.0 0.04 0.45 0.27 95 1007.7
20260507081110 49 0 0.0 0.0 0.05 0.45 0.27 95 1007.7
20260507081019 49 360 0.0 0.0 0.05 0.45 0.27 95 1007.7
20260507080903 49 0 0.0 0.0 0.05 0.45 0.27 95 1007.7
20260507080802 49 0 0.0 0.0 0.05 0.45 0.27 95 1007.7
20260507080702 49 0 0.0 0.0 0.05 0.45 0.27 94 1007.7
20260507080536 49 0 0.0 0.0 0.05 0.45 0.27 94 1007.8
20260507080519 49 360 0.0 0.0 0.05 0.45 0.27 94 1007.9
20260507080501 49 0 0.0 0.0 0.05 0.45 0.27 94 1007.8
20260507080400 49 0 0.0 0.0 0.05 0.45 0.27 94 1007.8
20260507080300 49 0 0.0 0.0 0.05 0.45 0.27 94 1007.9
20260507080201 49 0 0.0 0.0 0.05 0.45 0.27 94 1007.9
20260507080036 49 0 0.0 0.0 0.05 0.45 0.27 94 1007.9
20260507080019 49 360 0.0 0.0 0.05 0.45 0.27 94 1007.9
20260507080000 49 0 0.0 0.0 0.06 0.45 0.27 94 1007.8
20260507075924 49 0 0.0 0.0 0.06 0.45 0.27 94 1007.8
20260507075808 49 0 0.0 0.0 0.06 0.45 0.27 94 1007.8
20260507075804 49 0 0.0 0.0 0.06 0.45 0.27 94 1007.8
20260507075645 49 0 0.0 0.0 0.07 0.45 0.27 94 1007.8
20260507075549 49 360 0.0 0.0 0.06 0.45 0.27 94 1007.9
20260507075505 49 0 0.0 0.0 0.07 0.45 0.27 94 1007.8
20260507075501 49 0 0.0 0.0 0.07 0.45 0.27 94 1007.8
20260507075251 49 0 0.0 0.0 0.07 0.45 0.27 94 1007.8
20260507075152 49 0 0.0 0.0 0.07 0.45 0.27 94 1007.8
20260507075036 49 0 0.0 0.0 0.07 0.45 0.27 94 1007.8
20260507075022 49 0 0.0 0.0 0.07 0.45 0.27 94 1007.9
20260507075019 49 360 0.0 0.0 0.07 0.45 0.27 94 1007.9
20260507075016 49 0 0.0 0.0 0.07 0.45 0.27 94 1007.8
20260507075012 49 0 0.0 0.0 0.08 0.45 0.27 94 1007.8
20260507075008 49 0 0.0 0.0 0.07 0.45 0.27 94 1007.8
20260507074651 49 0 0.0 0.0 0.08 0.45 0.27 94 1007.8
20260507074642 49 0 0.0 0.0 0.08 0.45 0.27 94 1007.8
20260507074519 49 360 0.0 0.0 0.08 0.45 0.27 94 1007.9
20260507074449 49 0 0.0 0.0 0.08 0.45 0.27 94 1007.8
20260507074346 49 0 0.0 0.0 0.08 0.45 0.27 94 1007.9
20260507074246 49 0 0.0 0.0 0.08 0.45 0.27 94 1007.9
20260507074146 49 0 0.0 0.0 0.08 0.45 0.27 94 1007.9
20260507074033 49 0 0.0 0.0 0.08 0.45 0.27 94 1007.8
20260507074019 49 360 0.0 0.0 0.08 0.45 0.27 94 1008.0
20260507073944 49 0 0.0 0.0 0.08 0.45 0.27 94 1007.9
20260507073844 49 0 0.0 0.0 0.08 0.45 0.27 94 1007.9
20260507073755 49 0 0.0 0.0 0.08 0.45 0.27 94 1008.0
20260507073751 49 0 0.0 0.0 0.08 0.45 0.27 94 1008.0
20260507073600 49 0 0.0 0.0 0.08 0.45 0.27 94 1008.0
20260507073548 49 0 0.0 0.0 0.08 0.45 0.27 94 1008.1
20260507073534 49 360 0.0 0.0 0.08 0.45 0.27 94 1008.1
20260507073341 49 0 0.0 0.0 0.08 0.45 0.27 94 1008.1
20260507073329 49 0 0.0 0.0 0.08 0.45 0.27 94 1008.2
20260507073324 49 0 0.0 0.0 0.09 0.45 0.27 94 1008.2
20260507073320 49 0 0.0 0.0 0.08 0.44 0.26 94 1008.1
20260507073315 49 0 0.0 0.0 0.08 0.45 0.27 94 1008.2
20260507073202 49 0 0.0 0.0 0.08 0.44 0.26 94 1008.1
20260507073157 49 0 0.0 0.0 0.08 0.44 0.26 94 1008.1
20260507073153 49 0 0.0 0.0 0.08 0.45 0.27 94 1008.2
20260507073036 49 0 0.0 0.0 0.08 0.45 0.27 94 1008.2
20260507073029 49 0 0.0 0.0 0.08 0.45 0.27 94 1008.2
20260507073019 50 360 0.0 0.0 0.08 0.45 0.27 94 1008.3
20260507072545 49 0 0.0 0.0 0.08 0.44 0.26 94 1008.1
20260507072534 50 360 0.0 0.0 0.08 0.44 0.26 94 1008.2
20260507072337 49 0 0.0 0.0 0.08 0.44 0.26 94 1008.0
20260507072235 49 0 0.0 0.0 0.07 0.43 0.26 94 1008.1
20260507072134 49 0 0.0 0.0 0.07 0.43 0.25 94 1008.1
20260507072027 49 0 0.0 0.0 0.07 0.43 0.25 94 1008.2
20260507072019 50 360 0.0 0.0 0.07 0.43 0.25 94 1008.3
20260507071934 49 0 0.0 0.0 0.07 0.43 0.25 94 1008.2
20260507071847 49 0 0.0 0.0 0.06 0.42 0.24 94 1008.3
20260507071842 49 0 0.0 0.0 0.07 0.43 0.25 94 1008.3
20260507071633 49 0 0.0 0.0 0.06 0.42 0.24 94 1008.3
20260507071527 49 0 0.0 0.0 0.05 0.41 0.24 94 1008.3
20260507071519 50 360 0.0 0.0 0.06 0.42 0.24 94 1008.4
20260507071433 49 0 0.0 0.0 0.05 0.41 0.23 94 1008.3
20260507071333 50 0 0.0 0.0 0.05 0.41 0.23 94 1008.2
20260507071245 50 0 0.0 0.0 0.05 0.41 0.23 94 1008.2
20260507071241 50 0 0.0 0.0 0.05 0.41 0.23 94 1008.2
20260507071025 50 0 0.0 0.0 0.04 0.40 0.22 94 1008.2
20260507071019 50 360 0.0 0.0 0.04 0.40 0.22 94 1008.4
20260507070930 50 0 0.0 0.0 0.04 0.40 0.22 94 1008.3
20260507070842 50 0 0.0 0.0 0.05 0.40 0.22 94 1008.1
20260507070838 50 0 0.0 0.0 0.04 0.40 0.22 94 1008.2
20260507070629 50 0 0.0 0.0 0.06 0.40 0.22 94 1008.2
20260507070547 50 0 0.0 0.0 0.06 0.40 0.22 94 1008.2
20260507070519 50 360 0.0 0.0 0.06 0.40 0.22 94 1008.3
20260507070434 50 0 0.0 0.0 0.06 0.40 0.22 94 1008.2
20260507070225 50 0 0.0 0.0 0.06 0.40 0.22 93 1008.1
20260507070125 50 0 0.0 0.0 0.07 0.40 0.22 93 1008.2
20260507070046 50 0 0.0 0.0 0.06 0.39 0.22 93 1008.2
20260507070019 50 360 0.0 0.0 0.07 0.40 0.22 93 1008.3
20260507065931 50 0 0.0 0.0 0.07 0.39 0.21 93 1008.2
20260507065734 50 0 0.0 0.0 0.08 0.39 0.21 93 1008.3
20260507065730 50 0 0.0 0.0 0.08 0.39 0.21 93 1008.2
20260507065521 50 0 0.0 0.0 0.07 0.38 0.21 93 1008.2
20260507065421 50 0 0.0 0.0 0.07 0.38 0.20 93 1008.2
20260507065321 50 0 0.0 0.0 0.07 0.38 0.20 93 1008.2
20260507065225 50 0 0.0 0.0 0.08 0.38 0.20 93 1008.1
20260507065120 50 0 0.0 0.0 0.08 0.38 0.20 93 1008.3
20260507065049 50 360 0.0 0.0 0.08 0.38 0.20 93 1008.6
20260507065019 50 0 0.0 0.0 0.08 0.38 0.20 93 1008.5
20260507064932 50 0 0.0 0.0 0.08 0.38 0.20 93 1008.4
20260507064928 50 0 0.0 0.0 0.08 0.38 0.20 93 1008.5
20260507064718 50 0 0.0 0.0 0.07 0.37 0.20 93 1008.5
20260507064618 50 0 0.0 0.0 0.07 0.37 0.19 93 1008.4
20260507064551 50 0 0.0 0.0 0.07 0.37 0.19 93 1008.5
20260507064546 50 0 0.0 0.0 0.07 0.37 0.19 93 1008.6
20260507064536 50 0 0.0 0.0 0.07 0.37 0.19 93 1008.5
20260507064519 50 360 0.0 0.0 0.07 0.37 0.19 93 1008.6
20260507064217 50 0 0.0 0.0 0.07 0.37 0.19 93 1008.5
20260507064132 50 0 0.0 0.0 0.10 0.37 0.19 93 1008.7
20260507064128 50 0 0.0 0.0 0.08 0.37 0.19 93 1008.4
20260507064119 50 0 0.0 0.0 0.08 0.37 0.19 93 1008.4
20260507064020 50 360 0.0 0.0 0.08 0.37 0.19 93 1008.8
20260507063926 50 0 0.0 0.0 0.11 0.37 0.19 93 1008.4
20260507063921 50 0 0.0 0.0 0.10 0.37 0.19 93 1008.7
20260507063712 50 0 0.0 0.0 0.12 0.37 0.19 93 1008.3
20260507063629 50 0 0.0 0.0 0.12 0.37 0.19 93 1008.0
20260507063625 50 0 0.0 0.0 0.12 0.37 0.19 93 1008.1
20260507063616 50 0 0.0 0.0 0.12 0.37 0.19 93 1008.1
20260507063534 50 360 0.0 0.0 0.12 0.37 0.19 93 1008.1
20260507063410 50 0 0.0 0.0 0.12 0.37 0.19 93 1007.9
20260507063323 50 0 0.0 0.0 0.13 0.37 0.19 93 1008.0
20260507063319 50 0 0.0 0.0 0.12 0.37 0.19 93 1008.0
20260507063110 50 0 0.0 0.0 0.13 0.37 0.19 93 1008.0
20260507063035 50 360 0.0 0.0 0.13 0.37 0.19 93 1008.1
20260507063009 50 0 0.0 0.0 0.13 0.37 0.19 93 1008.0
20260507062909 50 0 0.0 0.0 0.12 0.36 0.18 93 1007.9
20260507062807 50 0 0.0 0.0 0.12 0.36 0.18 93 1008.1
20260507062708 50 0 0.0 0.0 0.12 0.36 0.18 93 1008.3
20260507062621 50 0 0.0 0.0 0.12 0.36 0.18 93 1008.4
20260507062612 50 0 0.0 0.0 0.12 0.36 0.18 93 1008.4
20260507062519 50 360 0.0 0.0 0.12 0.36 0.18 93 1008.5
20260507062406 50 0 0.0 0.0 0.12 0.36 0.18 93 1008.3
20260507062306 50 0 0.0 0.0 0.12 0.36 0.18 93 1008.2
20260507062205 50 0 0.0 0.0 0.13 0.36 0.18 93 1008.0
20260507062105 50 0 0.0 0.0 0.14 0.36 0.18 93 1008.0
20260507062020 50 360 0.0 0.0 0.14 0.36 0.18 93 1008.2
20260507062018 50 0 0.0 0.0 0.14 0.36 0.18 93 1008.0
20260507062004 50 0 0.0 0.0 0.14 0.36 0.18 93 1008.1
20260507061904 50 0 0.0 0.0 0.14 0.36 0.18 93 1008.2
20260507061803 50 0 0.0 0.0 0.14 0.36 0.18 93 1008.2
20260507061703 50 0 0.0 0.0 0.15 0.36 0.18 93 1008.2
20260507061602 50 0 0.0 0.0 0.15 0.36 0.18 93 1008.2
20260507061520 50 360 0.0 0.0 0.15 0.36 0.18 93 1008.1
20260507061515 50 0 0.0 0.0 0.15 0.36 0.18 93 1008.0
20260507061510 50 0 0.0 0.0 0.15 0.36 0.18 93 1008.0
20260507061300 50 0 0.0 0.0 0.16 0.36 0.18 93 1007.9
20260507061200 51 0 0.0 0.0 0.16 0.36 0.18 93 1008.0
20260507061059 51 0 0.0 0.0 0.17 0.36 0.18 93 1008.1
20260507061019 51 360 0.0 0.0 0.17 0.36 0.18 93 1008.2
20260507061016 51 0 0.0 0.0 0.17 0.36 0.18 93 1008.1
20260507060959 51 0 0.0 0.0 0.17 0.36 0.18 93 1008.1
20260507060858 51 0 0.0 0.0 0.17 0.36 0.18 93 1008.1
20260507060758 51 0 0.0 0.0 0.17 0.36 0.18 93 1008.2
20260507060657 51 0 0.0 0.0 0.16 0.35 0.18 93 1008.3
20260507060557 51 0 0.0 0.0 0.15 0.34 0.17 92 1008.4
20260507060526 51 0 0.0 0.0 0.16 0.34 0.16 92 1007.9
20260507060521 51 0 0.0 0.0 0.16 0.34 0.16 92 1008.4
20260507060519 51 360 0.0 0.0 0.15 0.34 0.16 92 1008.2
20260507060515 51 0 0.0 0.0 0.16 0.34 0.16 92 1008.1
20260507060506 51 0 0.0 0.0 0.16 0.34 0.16 92 1007.8
20260507060155 51 0 0.0 0.0 0.16 0.34 0.16 92 1008.1
20260507060053 51 0 0.0 0.0 0.15 0.33 0.15 92 1008.2
20260507060034 51 360 0.0 0.0 0.15 0.33 0.15 92 1008.4
20260507060014 51 0 0.0 0.0 0.15 0.33 0.15 92 1008.2
20260507055953 51 0 0.0 0.0 0.14 0.32 0.15 92 1008.3
20260507055853 51 0 0.0 0.0 0.14 0.32 0.14 92 1008.2
20260507055805 51 0 0.0 0.0 0.13 0.31 0.13 92 1008.2
20260507055801 51 0 0.0 0.0 0.13 0.31 0.14 92 1008.2
20260507055551 51 0 0.0 0.0 0.13 0.31 0.13 92 1008.1
20260507055519 51 360 0.0 0.0 0.13 0.31 0.13 92 1008.4
20260507055515 51 0 0.0 0.0 0.13 0.31 0.13 92 1008.1
20260507055451 51 0 0.0 0.0 0.13 0.31 0.13 92 1008.3
20260507055351 51 0 0.0 0.0 0.13 0.31 0.13 92 1008.5
20260507055250 51 0 0.0 0.0 0.13 0.31 0.13 92 1008.5
20260507055150 51 0 0.0 0.0 0.12 0.30 0.12 92 1008.3
20260507055048 51 0 0.0 0.0 0.12 0.30 0.12 92 1008.0
20260507055034 51 360 0.0 0.0 0.12 0.30 0.12 92 1008.1
20260507055015 51 0 0.0 0.0 0.12 0.30 0.12 92 1008.1
20260507054948 51 0 0.0 0.0 0.12 0.30 0.12 92 1008.1
20260507054847 51 0 0.0 0.0 0.12 0.30 0.12 92 1008.1
20260507054749 51 0 0.0 0.0 0.12 0.30 0.12 92 1008.1
20260507054736 51 0 0.0 0.0 0.12 0.30 0.12 91 1008.1
20260507054731 51 0 0.0 0.0 0.12 0.30 0.12 92 1008.1
20260507054519 51 360 0.0 0.0 0.12 0.30 0.12 91 1008.1
20260507054446 51 0 0.0 0.0 0.12 0.30 0.12 92 1008.1
20260507054346 51 0 0.0 0.0 0.12 0.30 0.12 92 1008.1
20260507054245 51 0 0.0 0.0 0.12 0.30 0.12 92 1008.1
20260507054145 51 0 0.0 0.0 0.11 0.29 0.12 92 1008.1
20260507054045 51 0 0.0 0.0 0.11 0.29 0.11 92 1008.2
20260507054019 52 360 0.0 0.0 0.11 0.29 0.11 91 1008.1
20260507054013 51 0 0.0 0.0 0.09 0.27 0.11 91 1008.2
20260507053843 52 0 0.0 0.0 0.08 0.26 0.08 91 1008.1
20260507053742 52 0 0.0 0.0 0.07 0.25 0.07 91 1007.8
20260507053643 52 0 0.0 0.0 0.07 0.25 0.07 91 1008.0
20260507053520 52 360 0.0 1.0 0.07 0.25 0.07 91 1009.0
20260507053512 52 0 0.0 1.0 0.07 0.25 0.07 91 1008.7
20260507053442 52 0 0.0 2.0 0.07 0.25 0.07 91 1009.0
20260507053341 52 0 0.0 2.0 0.07 0.25 0.07 91 1008.7
20260507053241 52 0 0.0 2.0 0.06 0.24 0.06 90 1008.3
20260507053141 52 0 0.0 2.0 0.06 0.24 0.06 90 1008.0
20260507053100 52 0 0.0 2.0 0.06 0.24 0.06 90 1007.8
20260507053019 52 360 0.0 2.0 0.06 0.24 0.06 90 1007.8
20260507052949 52 0 0.0 2.0 0.06 0.24 0.06 90 1007.8
20260507052744 52 0 0.0 4.0 0.06 0.24 0.06 90 1007.9
20260507052738 52 0 0.0 2.0 0.06 0.24 0.06 90 1007.9
20260507052638 52 0 0.0 2.0 0.06 0.24 0.06 90 1007.9
20260507052619 52 0 0.0 2.0 0.06 0.24 0.06 90 1007.9
20260507052520 52 360 1.0 4.0 0.06 0.24 0.06 90 1007.9
20260507052451 52 0 1.0 5.0 0.06 0.24 0.06 89 1007.8
20260507052446 52 0 0.0 4.0 0.06 0.24 0.06 90 1007.9
20260507052234 52 0 1.0 6.0 0.06 0.24 0.06 89 1007.9
20260507052134 52 0 1.0 6.0 0.05 0.23 0.05 89 1007.8
20260507052034 53 0 1.0 6.0 0.04 0.22 0.05 89 1007.8
20260507052020 53 360 0.0 6.0 0.04 0.22 0.04 89 1008.0
20260507052011 53 0 1.0 6.0 0.04 0.22 0.04 89 1008.0
20260507051933 53 0 1.0 6.0 0.04 0.22 0.04 89 1008.0
20260507051833 53 0 1.0 6.0 0.04 0.22 0.04 89 1007.9
20260507051737 53 0 1.0 6.0 0.03 0.21 0.03 88 1007.8
20260507051733 53 0 1.0 6.0 0.04 0.22 0.04 88 1007.6
20260507051632 53 0 1.0 6.0 0.03 0.21 0.04 88 1007.6
20260507051619 53 0 1.0 6.0 0.03 0.21 0.03 88 1007.8
20260507051520 53 360 3.0 6.0 0.03 0.21 0.03 88 1007.8
20260507051433 53 0 1.0 6.0 0.03 0.21 0.03 88 1007.8
20260507051332 53 0 1.0 5.0 0.03 0.21 0.03 88 1007.9
20260507051232 53 0 1.0 5.0 0.02 0.20 0.03 88 1008.0
20260507051132 53 0 1.0 5.0 0.01 0.19 0.02 88 1008.0
20260507051032 53 0 1.0 5.0 0.01 0.19 0.01 88 1007.9
20260507051019 53 360 1.0 5.0 0.01 0.19 0.01 88 1008.1
20260507051011 53 0 2.0 5.0 0.01 0.19 0.01 88 1007.9
20260507050945 53 0 2.0 5.0 0.01 0.19 0.01 88 1008.4
20260507050941 53 0 2.0 5.0 0.01 0.19 0.01 88 1008.1
20260507050734 54 0 2.0 6.0 0.00 0.18 0.01 86 1007.1
20260507050730 53 0 2.0 5.0 0.01 0.19 0.01 87 1008.3
20260507050630 53 0 2.0 6.0 0.01 0.19 0.01 87 1008.1
20260507050618 54 0 2.0 6.0 0.01 0.19 0.01 86 1007.5
20260507050520 54 360 2.0 6.0 0.01 0.19 0.01 86 1007.2
20260507050429 54 0 2.0 6.0 0.00 0.18 0.01 87 1007.1
20260507050329 54 0 2.0 6.0 0.00 0.18 0.00 86 1007.1
20260507050248 54 0 2.0 9.0 0.00 0.18 0.00 86 1007.8
20260507050239 54 0 2.0 9.0 0.00 0.18 0.00 86 1007.6
20260507050235 54 0 2.0 9.0 0.00 0.18 0.00 86 1007.3
20260507050226 54 0 2.0 9.0 0.00 0.18 0.00 86 1007.6
20260507050019 54 360 3.0 6.0 0.00 0.18 0.00 86 1007.9
20260507045928 54 0 2.0 9.0 0.00 0.18 0.00 86 1007.8
20260507045826 54 0 2.0 9.0 0.00 0.18 0.00 86 1007.9
20260507045726 54 0 2.0 9.0 0.00 0.18 0.00 87 1007.9
20260507045658 54 0 1.0 9.0 0.00 0.18 0.00 86 1007.4
20260507045654 54 0 1.0 9.0 0.00 0.18 0.00 86 1007.2
20260507045649 54 0 1.0 9.0 0.00 0.18 0.00 86 1007.6
20260507045532 54 0 1.0 9.0 0.00 0.18 0.00 86 1007.2
20260507045520 54 360 2.0 6.0 0.00 0.18 0.00 86 1007.3
20260507045323 54 0 1.0 9.0 0.00 0.18 0.00 87 1007.2
20260507045224 54 0 1.0 6.0 0.00 0.18 0.00 87 1007.1
20260507045124 54 0 0.0 3.0 0.00 0.18 0.00 87 1007.0
20260507045023 54 0 0.0 2.0 0.00 0.18 0.00 87 1006.8
20260507045019 54 360 0.0 3.0 0.00 0.18 0.00 87 1006.9
20260507045007 54 0 0.0 3.0 0.00 0.18 0.00 87 1006.8
20260507044921 55 0 0.0 3.0 0.00 0.18 0.00 87 1006.8
20260507044822 55 0 0.0 3.0 0.00 0.18 0.00 87 1007.0
20260507044803 55 0 0.0 3.0 0.00 0.18 0.00 86 1006.9
20260507044721 55 0 0.0 3.0 0.00 0.18 0.00 87 1007.1
20260507044657 55 0 0.0 3.0 0.00 0.18 0.00 86 1007.0
20260507044648 55 0 0.0 3.0 0.00 0.18 0.00 86 1007.0
20260507044534 55 360 1.0 3.0 0.00 0.18 0.00 86 1007.0
20260507044429 55 0 0.0 3.0 0.00 0.18 0.00 86 1006.9
20260507044233 55 0 1.0 6.0 0.00 0.18 0.00 86 1007.3
20260507044229 55 0 1.0 6.0 0.00 0.18 0.00 86 1007.1
20260507044019 55 360 2.0 6.0 0.00 0.18 0.00 86 1007.8
20260507044004 55 0 1.0 6.0 0.00 0.18 0.00 86 1007.7
20260507043919 55 0 1.0 6.0 0.00 0.18 0.00 86 1007.7
20260507043818 55 0 1.0 6.0 0.00 0.18 0.00 86 1007.5
20260507043718 55 0 1.0 6.0 0.00 0.18 0.00 86 1007.2
20260507043631 55 0 1.0 6.0 0.00 0.18 0.00 85 1006.9
20260507043627 55 0 1.0 6.0 0.00 0.18 0.00 86 1006.9
20260507043534 55 360 3.0 6.0 0.00 0.18 0.00 85 1007.0
20260507043505 55 0 1.0 6.0 0.00 0.18 0.00 85 1006.9
20260507043417 55 0 1.0 6.0 0.00 0.18 0.00 86 1006.9
20260507043317 55 0 1.0 5.0 0.00 0.18 0.00 86 1007.1
20260507043229 55 0 1.0 5.0 0.00 0.18 0.00 86 1007.3
20260507043225 55 0 1.0 5.0 0.00 0.18 0.00 86 1007.2
20260507043019 55 360 0.0 5.0 0.00 0.18 0.00 85 1007.4
20260507043004 55 0 2.0 5.0 0.00 0.18 0.00 85 1007.3
20260507042915 55 0 2.0 5.0 0.00 0.18 0.00 85 1007.3
20260507042814 55 0 2.0 5.0 0.00 0.18 0.00 85 1007.2
20260507042714 55 0 2.0 5.0 0.00 0.18 0.00 86 1007.2
20260507042626 55 0 2.0 5.0 0.00 0.18 0.00 86 1007.0
20260507042622 55 0 2.0 5.0 0.00 0.18 0.00 86 1007.0
20260507042520 55 360 2.0 5.0 0.00 0.18 0.00 86 1007.1
20260507042503 55 0 2.0 5.0 0.00 0.18 0.00 86 1007.0
20260507042412 55 0 1.0 5.0 0.00 0.18 0.00 86 1007.0
20260507042311 55 0 1.0 5.0 0.00 0.18 0.00 86 1007.1
20260507042239 55 0 1.0 5.0 0.00 0.18 0.00 86 1007.0
20260507042235 55 0 1.0 5.0 0.00 0.18 0.00 86 1006.9
20260507042229 55 0 1.0 5.0 0.00 0.18 0.00 86 1007.1
20260507042019 55 360 2.0 5.0 0.00 0.18 0.00 86 1007.0
20260507042000 55 0 1.0 6.0 0.00 0.18 0.00 86 1006.9
20260507041909 55 0 1.0 8.0 0.00 0.18 0.00 86 1006.9
20260507041809 55 0 1.0 8.0 0.00 0.18 0.00 86 1006.9
20260507041708 55 0 1.0 8.0 0.00 0.18 0.00 86 1006.9
20260507041608 55 0 1.0 8.0 0.00 0.18 0.00 86 1006.9
20260507041520 55 360 0.0 8.0 0.00 0.18 0.00 86 1007.1
20260507041508 55 0 2.0 8.0 0.00 0.18 0.00 86 1007.0
20260507041500 55 0 2.0 8.0 0.00 0.18 0.00 86 1007.0
20260507041407 55 0 2.0 8.0 0.00 0.18 0.00 86 1006.9
20260507041307 55 0 2.0 8.0 0.00 0.18 0.00 86 1006.9
20260507041206 55 0 2.0 8.0 0.00 0.18 0.00 86 1006.9
20260507041106 55 0 2.0 8.0 0.00 0.18 0.00 86 1006.9
20260507041019 55 360 5.0 8.0 0.00 0.18 0.00 86 1007.1
20260507041007 55 0 2.0 8.0 0.00 0.18 0.00 86 1007.0
20260507041001 55 0 2.0 8.0 0.00 0.18 0.00 86 1007.0
20260507040902 55 0 2.0 6.0 0.00 0.18 0.00 86 1007.2
20260507040814 55 0 2.0 6.0 0.00 0.18 0.00 86 1007.3
20260507040810 55 0 2.0 6.0 0.00 0.18 0.00 86 1007.2
20260507040600 55 0 2.0 6.0 0.00 0.18 0.00 86 1007.3
20260507040519 55 360 3.0 6.0 0.00 0.18 0.00 86 1007.3
20260507040501 55 0 2.0 6.0 0.00 0.18 0.00 86 1007.2
20260507040359 55 0 1.0 6.0 0.00 0.18 0.00 86 1007.3
20260507040258 55 0 1.0 6.0 0.00 0.18 0.00 86 1007.4
20260507040158 55 0 1.0 6.0 0.00 0.18 0.00 87 1007.3
20260507040112 55 0 1.0 5.0 0.00 0.18 0.00 87 1007.2
20260507040019 55 360 0.0 5.0 0.00 0.18 0.00 87 1007.3
20260507035855 55 0 2.0 8.0 0.00 0.18 0.18 87 1007.2
20260507035806 55 0 2.0 8.0 0.00 0.18 0.18 87 1007.4
20260507035802 55 0 2.0 8.0 0.00 0.18 0.18 87 1007.3
20260507035552 55 0 2.0 8.0 0.00 0.18 0.18 87 1007.4
20260507035534 55 360 0.0 8.0 0.00 0.18 0.18 87 1007.5
20260507035452 55 0 2.0 8.0 0.00 0.18 0.18 87 1007.4
20260507035353 55 0 2.0 8.0 0.00 0.18 0.18 87 1007.4
20260507035252 55 0 2.0 8.0 0.00 0.18 0.18 87 1007.4
20260507035150 55 0 2.0 8.0 0.00 0.18 0.18 87 1007.4
20260507035050 55 0 1.0 8.0 0.00 0.18 0.18 87 1007.4
20260507035020 56 360 5.0 8.0 0.00 0.18 0.18 87 1007.6
20260507034957 55 0 1.0 6.0 0.00 0.18 0.18 87 1007.5
20260507034949 56 0 1.0 6.0 0.00 0.18 0.18 87 1007.5
20260507034849 56 0 1.0 5.0 0.00 0.18 0.18 87 1007.4
20260507034749 56 0 1.0 8.0 0.00 0.18 0.18 87 1007.3
20260507034717 56 0 1.0 8.0 0.00 0.18 0.18 88 1007.4
20260507034647 56 0 1.0 8.0 0.00 0.18 0.18 87 1007.3
20260507034606 56 0 1.0 8.0 0.00 0.18 0.18 88 1007.2
20260507034446 56 0 1.0 8.0 0.00 0.18 0.18 88 1007.4
20260507034344 56 0 1.0 8.0 0.00 0.18 0.18 88 1007.4
20260507034306 56 0 1.0 8.0 0.01 0.18 0.18 87 1007.3
20260507034244 56 0 1.0 8.0 0.00 0.18 0.18 88 1007.4
20260507034212 56 0 1.0 8.0 0.01 0.18 0.18 87 1007.3
20260507034207 56 0 1.0 8.0 0.00 0.18 0.18 87 1007.3
20260507034158 56 0 2.0 8.0 0.01 0.18 0.18 87 1007.3
20260507034020 56 360 0.0 8.0 0.01 0.18 0.18 87 1007.4
20260507033842 56 0 1.0 8.0 0.01 0.18 0.18 87 1007.2
20260507033742 56 0 1.0 5.0 0.01 0.18 0.18 87 1007.2
20260507033641 56 0 1.0 5.0 0.01 0.18 0.18 87 1007.2
20260507033541 56 0 1.0 5.0 0.01 0.18 0.18 87 1007.3
20260507033520 56 360 3.0 5.0 0.01 0.18 0.18 87 1007.3
20260507033459 56 0 1.0 5.0 0.01 0.18 0.18 87 1007.2
20260507033440 56 0 1.0 5.0 0.01 0.18 0.18 88 1007.2
20260507033340 56 0 1.0 4.0 0.01 0.18 0.18 88 1007.2
20260507033240 56 0 1.0 4.0 0.01 0.18 0.18 88 1007.2
20260507033137 56 0 1.0 4.0 0.01 0.18 0.18 88 1007.2
20260507033038 56 0 1.0 4.0 0.01 0.18 0.18 88 1007.1
20260507033020 56 360 1.0 4.0 0.01 0.18 0.18 88 1007.2
20260507032937 56 0 1.0 4.0 0.01 0.18 0.18 88 1007.1
20260507032837 56 0 1.0 4.0 0.01 0.18 0.18 88 1006.9
20260507032734 56 0 1.0 4.0 0.01 0.18 0.18 88 1006.9
20260507032715 56 0 1.0 4.0 0.01 0.18 0.18 88 1006.9
20260507032633 56 0 1.0 4.0 0.01 0.18 0.18 88 1006.9
20260507032615 56 0 1.0 4.0 0.01 0.18 0.18 87 1007.0
20260507032611 56 0 1.0 8.0 0.01 0.18 0.18 88 1006.9
20260507032605 56 0 1.0 4.0 0.01 0.18 0.18 88 1006.9
20260507032519 56 360 2.0 4.0 0.01 0.18 0.18 88 1007.0
20260507032450 56 0 1.0 4.0 0.01 0.18 0.18 87 1006.9
20260507032204 56 0 1.0 8.0 0.01 0.18 0.18 87 1006.8
20260507032200 56 0 1.0 8.0 0.01 0.18 0.18 87 1006.9
20260507032154 56 0 1.0 8.0 0.01 0.18 0.18 87 1006.9
20260507032037 56 0 1.0 8.0 0.01 0.18 0.18 87 1006.8
20260507032019 56 360 0.0 8.0 0.01 0.18 0.18 87 1006.9
20260507031830 56 0 2.0 12.0 0.01 0.18 0.18 87 1006.9
20260507031730 56 0 2.0 12.0 0.01 0.18 0.18 87 1007.0
20260507031630 56 0 2.0 12.0 0.01 0.18 0.18 87 1006.9
20260507031529 56 0 2.0 12.0 0.01 0.18 0.18 87 1006.9
20260507031520 57 360 3.0 12.0 0.01 0.18 0.18 87 1006.9
20260507031428 56 0 2.0 12.0 0.01 0.18 0.18 87 1006.9
20260507031328 57 0 2.0 12.0 0.01 0.18 0.18 87 1006.9
20260507031227 57 0 2.0 12.0 0.01 0.18 0.18 87 1006.9
20260507031127 57 0 2.0 12.0 0.01 0.18 0.18 87 1006.9
20260507031025 57 0 3.0 12.0 0.01 0.18 0.18 87 1007.0
20260507031020 57 360 0.0 12.0 0.01 0.18 0.18 87 1007.0
20260507030939 57 0 3.0 10.0 0.01 0.18 0.18 87 1007.0
20260507030934 57 0 3.0 12.0 0.01 0.18 0.18 87 1007.0
20260507030738 57 0 3.0 10.0 0.01 0.18 0.18 88 1006.9
20260507030733 57 0 3.0 10.0 0.01 0.18 0.18 87 1007.0
20260507030537 57 0 3.0 10.0 0.01 0.18 0.18 88 1006.9
20260507030529 57 0 3.0 10.0 0.01 0.18 0.18 88 1006.9
20260507030520 57 360 0.0 10.0 0.01 0.18 0.18 88 1006.9
20260507030322 57 0 3.0 10.0 0.01 0.18 0.18 87 1006.9
20260507030221 57 0 3.0 10.0 0.01 0.18 0.18 87 1006.9
20260507030120 58 0 3.0 9.0 0.01 0.18 0.18 87 1006.9
20260507030034 58 360 3.0 9.0 0.01 0.18 0.18 88 1006.7
20260507030018 58 0 3.0 9.0 0.01 0.18 0.18 88 1006.8
20260507025954 58 0 3.0 9.0 0.01 0.18 0.18 88 1006.7
20260507025917 58 0 3.0 9.0 0.01 0.18 0.18 88 1006.7
20260507025818 58 0 3.0 9.0 0.02 0.18 0.18 88 1006.6
20260507025718 58 0 3.0 12.0 0.02 0.18 0.18 88 1006.6
20260507025616 58 0 3.0 12.0 0.02 0.18 0.18 88 1006.6
20260507025519 58 360 4.0 12.0 0.02 0.18 0.18 88 1006.6
20260507025516 58 0 3.0 12.0 0.02 0.18 0.18 88 1006.6
20260507025453 58 0 3.0 12.0 0.02 0.18 0.18 88 1006.6
20260507025416 58 0 3.0 12.0 0.02 0.18 0.18 88 1006.6
20260507025316 59 0 3.0 12.0 0.02 0.18 0.18 88 1006.7
20260507025259 59 0 3.0 13.0 0.02 0.18 0.18 87 1006.5
20260507025253 59 0 4.0 13.0 0.02 0.18 0.18 88 1006.7
20260507025139 59 0 3.0 13.0 0.02 0.18 0.18 87 1006.6
20260507025130 59 0 3.0 13.0 0.02 0.18 0.18 87 1006.5
20260507025019 59 360 0.0 13.0 0.02 0.18 0.18 87 1006.5
20260507024815 60 0 2.0 13.0 0.02 0.18 0.18 87 1006.5
20260507024714 60 0 2.0 13.0 0.02 0.18 0.18 88 1006.5
20260507024628 60 0 1.0 13.0 0.02 0.18 0.18 87 1006.4
20260507024623 60 0 2.0 13.0 0.02 0.18 0.18 87 1006.4
20260507024520 60 360 3.0 13.0 0.02 0.18 0.18 87 1006.4
20260507024451 61 0 1.0 13.0 0.02 0.18 0.18 87 1006.4
20260507024413 61 0 1.0 13.0 0.02 0.18 0.18 87 1006.3
20260507024313 61 0 0.0 13.0 0.02 0.18 0.18 88 1006.3
20260507024212 62 0 0.0 13.0 0.02 0.18 0.18 89 1006.4
20260507024111 63 0 0.0 1.0 0.02 0.18 0.18 91 1006.4
20260507024020 63 360 0.0 0.0 0.01 0.17 0.17 92 1006.3
20260507024011 63 0 0.0 0.0 0.01 0.17 0.17 92 1006.3
20260507023950 63 0 0.0 0.0 0.01 0.17 0.17 92 1006.3
20260507023925 63 0 0.0 0.0 0.01 0.17 0.17 92 1006.4
20260507023920 63 0 0.0 0.0 0.01 0.17 0.17 92 1006.4
20260507023732 63 0 0.0 0.0 0.01 0.17 0.17 92 1006.4
20260507023727 63 0 0.0 0.0 0.01 0.17 0.17 92 1006.4
20260507023722 63 0 0.0 0.0 0.01 0.17 0.17 92 1006.4
20260507023713 63 0 0.0 0.0 0.01 0.17 0.17 92 1006.4
20260507023535 63 360 0.0 0.0 0.01 0.17 0.17 93 1006.4
20260507023452 63 0 0.0 0.0 0.01 0.17 0.17 92 1006.4
20260507023444 63 0 0.0 0.0 0.01 0.17 0.17 93 1006.3
20260507023331 63 0 0.0 0.0 0.01 0.17 0.17 92 1006.3
20260507023218 63 0 0.0 0.0 0.01 0.17 0.17 92 1006.3
20260507023209 63 0 0.0 0.0 0.01 0.17 0.17 92 1006.4
20260507023159 63 0 0.0 0.0 0.01 0.17 0.17 92 1006.4
20260507023019 63 360 0.0 0.0 0.01 0.17 0.17 92 1006.4
20260507022940 63 0 0.0 0.0 0.01 0.17 0.17 92 1006.4
20260507022520 63 360 0.0 0.0 0.01 0.17 0.17 92 1006.5
20260507022448 63 0 0.0 0.0 0.01 0.17 0.17 92 1006.5
20260507022402 63 0 0.0 0.0 0.01 0.17 0.17 92 1006.4
20260507022301 63 0 0.0 0.0 0.01 0.17 0.17 92 1006.4
20260507022215 63 0 0.0 0.0 0.01 0.17 0.17 92 1006.2
20260507022201 63 0 0.0 0.0 0.01 0.17 0.17 92 1006.3
20260507022118 63 0 0.0 0.0 0.01 0.17 0.17 92 1006.3
20260507022113 63 0 0.0 0.0 0.01 0.17 0.17 92 1006.3
20260507022108 63 0 0.0 0.0 0.01 0.17 0.17 92 1006.3
20260507022104 63 0 0.0 0.0 0.01 0.17 0.17 92 1006.3
20260507022055 63 0 0.0 0.0 0.01 0.17 0.17 92 1006.2
20260507022050 63 360 0.0 0.0 0.01 0.17 0.17 92 1006.2
20260507021942 64 0 0.0 0.0 0.01 0.17 0.17 92 1006.4
20260507021936 63 0 0.0 0.0 0.01 0.17 0.17 92 1006.3
20260507021520 64 360 0.0 0.0 0.01 0.17 0.17 92 1006.4
20260507021446 64 0 0.0 0.0 0.01 0.17 0.17 92 1006.4
20260507021359 64 0 0.0 0.0 0.01 0.17 0.17 92 1006.4
20260507021259 64 0 0.0 0.0 0.01 0.17 0.17 92 1006.4
20260507021158 64 0 0.0 0.0 0.01 0.17 0.17 92 1006.4
20260507021058 64 0 0.0 0.0 0.02 0.17 0.17 92 1006.4
20260507021019 64 360 0.0 0.0 0.02 0.17 0.17 92 1006.3
20260507020944 64 0 0.0 0.0 0.02 0.17 0.17 92 1006.3
20260507020857 64 0 0.0 0.0 0.02 0.17 0.17 92 1006.3
20260507020810 64 0 0.0 0.0 0.03 0.17 0.17 92 1006.4
20260507020804 64 0 0.0 0.0 0.02 0.17 0.17 92 1006.4
20260507020555 64 0 0.0 0.0 0.03 0.17 0.17 92 1006.4
20260507020549 64 360 0.0 0.0 0.03 0.17 0.17 92 1006.4
20260507020444 64 0 0.0 0.0 0.03 0.17 0.17 92 1006.4
20260507020355 64 0 0.0 0.0 0.03 0.17 0.17 92 1006.4
20260507020254 64 0 0.0 0.0 0.03 0.17 0.17 92 1006.4
20260507020154 64 0 0.0 0.0 0.03 0.17 0.17 92 1006.4
20260507020053 64 0 0.0 0.0 0.03 0.17 0.17 91 1006.4
20260507020019 64 360 0.0 0.0 0.03 0.17 0.17 91 1006.5
20260507015944 64 0 0.0 0.0 0.03 0.17 0.17 91 1006.5
20260507015851 64 0 0.0 0.0 0.02 0.16 0.16 91 1006.5
20260507015750 64 0 0.0 0.0 0.02 0.16 0.16 91 1006.5
20260507015704 64 0 0.0 0.0 0.02 0.16 0.16 91 1006.5
20260507015659 64 0 0.0 0.0 0.02 0.16 0.16 91 1006.5
20260507015535 64 360 0.0 0.0 0.02 0.16 0.16 91 1006.6
20260507015441 64 0 0.0 0.0 0.02 0.16 0.16 91 1006.6
20260507015349 64 0 0.0 0.0 0.02 0.16 0.16 91 1006.6
20260507015314 64 0 0.0 0.0 0.02 0.16 0.16 91 1006.4
20260507015148 64 0 0.0 0.0 0.02 0.16 0.16 91 1006.4
20260507015058 64 0 0.0 0.0 0.02 0.16 0.16 91 1006.4
20260507015049 64 0 0.0 0.0 0.02 0.16 0.16 91 1006.5
20260507015034 64 360 0.0 0.0 0.02 0.16 0.16 90 1006.5
20260507014846 64 0 0.0 0.0 0.02 0.16 0.16 90 1006.6
20260507014746 64 0 0.0 0.0 0.02 0.16 0.16 90 1006.6
20260507014646 64 0 0.0 0.0 0.02 0.16 0.16 90 1006.5
20260507014545 64 0 0.0 0.0 0.02 0.16 0.16 90 1006.5
20260507014520 64 360 0.0 0.0 0.02 0.16 0.16 90 1006.5
20260507014440 64 0 0.0 0.0 0.02 0.16 0.16 90 1006.5
20260507014409 64 0 0.0 0.0 0.02 0.16 0.16 90 1006.4
20260507014405 64 0 0.0 0.0 0.02 0.16 0.16 90 1006.3
20260507014400 64 0 0.0 0.0 0.02 0.16 0.16 90 1006.5
20260507014041 64 0 0.0 0.0 0.02 0.16 0.16 89 1006.3
20260507014035 64 360 0.0 0.0 0.02 0.16 0.16 89 1006.3
20260507013942 64 0 0.0 0.0 0.02 0.16 0.16 89 1006.3
20260507013840 64 0 0.0 0.0 0.02 0.16 0.16 89 1006.2
20260507013818 65 0 0.0 0.0 0.02 0.16 0.16 89 1006.2
20260507013706 65 0 0.0 0.0 0.02 0.16 0.16 89 1006.3
20260507013700 65 0 0.0 0.0 0.02 0.16 0.16 89 1006.3
20260507013542 65 0 0.0 0.0 0.02 0.16 0.16 89 1006.3
20260507013535 65 360 0.0 0.0 0.02 0.16 0.16 89 1006.3
20260507013350 65 0 0.0 0.0 0.02 0.16 0.16 88 1006.3
20260507013345 65 0 0.0 0.0 0.02 0.16 0.16 89 1006.3
20260507013158 65 0 0.0 0.0 0.02 0.16 0.16 88 1006.3
20260507013135 65 0 0.0 0.0 0.02 0.16 0.16 88 1006.3
20260507013049 65 0 0.0 0.0 0.02 0.16 0.16 88 1006.3
20260507013021 65 360 0.0 0.0 0.02 0.16 0.16 88 1006.3
20260507012934 65 0 0.0 0.0 0.02 0.16 0.16 88 1006.3
20260507012834 65 0 0.0 0.0 0.02 0.16 0.16 88 1006.2
20260507012734 65 0 0.0 0.0 0.02 0.16 0.16 88 1006.2
20260507012633 65 0 0.0 0.0 0.02 0.16 0.16 88 1006.2
20260507012533 65 0 0.0 0.0 0.02 0.16 0.16 87 1006.2
20260507012519 65 360 0.0 0.0 0.02 0.16 0.16 87 1006.2
20260507012452 65 0 0.0 0.0 0.02 0.16 0.16 87 1006.2
20260507012441 65 0 0.0 0.0 0.02 0.16 0.16 87 1006.2
20260507012232 65 0 0.0 0.0 0.02 0.16 0.16 87 1006.2
20260507012132 65 0 0.0 0.0 0.02 0.16 0.16 86 1006.2
20260507012030 65 0 0.0 0.0 0.02 0.16 0.16 86 1006.2
20260507012020 66 360 0.0 0.0 0.02 0.16 0.16 86 1006.1
20260507011931 66 0 0.0 0.0 0.02 0.16 0.16 86 1006.1
20260507011829 66 0 0.0 0.0 0.02 0.16 0.16 86 1006.1
20260507011729 66 0 0.0 0.0 0.02 0.16 0.16 86 1006.1
20260507011700 66 0 0.0 0.0 0.02 0.16 0.16 85 1006.0
20260507011656 66 0 0.0 0.0 0.02 0.16 0.16 85 1006.0
20260507011650 66 0 0.0 0.0 0.02 0.16 0.16 85 1006.1
20260507011534 66 360 0.0 0.0 0.02 0.16 0.16 85 1006.0
20260507011532 66 0 0.0 0.0 0.02 0.16 0.16 85 1006.0
20260507011327 66 0 0.0 0.0 0.02 0.16 0.16 85 1006.0
20260507011242 66 0 0.0 0.0 0.01 0.15 0.16 85 1006.0
20260507011237 66 0 0.0 0.0 0.02 0.16 0.16 85 1006.0
20260507011102 66 0 0.0 0.0 0.01 0.15 0.15 84 1005.8
20260507011020 66 360 0.0 0.0 0.01 0.15 0.15 84 1005.9
20260507010932 66 0 0.0 0.0 0.01 0.15 0.15 84 1005.9
20260507010826 66 0 0.0 0.0 0.01 0.15 0.15 84 1005.9
20260507010726 66 0 0.0 0.0 0.00 0.14 0.15 84 1006.0
20260507010625 66 0 0.0 0.0 0.00 0.14 0.14 84 1006.0
20260507010534 66 360 0.0 0.0 0.00 0.14 0.14 83 1006.0
20260507010525 66 0 0.0 0.0 0.00 0.14 0.14 83 1006.1
20260507010424 66 0 0.0 0.0 0.00 0.14 0.14 83 1006.0
20260507010325 66 0 0.0 0.0 0.00 0.14 0.14 83 1005.9
20260507010225 66 0 0.0 0.0 0.00 0.14 0.14 82 1005.8
20260507010124 66 0 0.0 0.0 0.00 0.14 0.14 82 1005.8
20260507010024 66 0 0.0 0.0 0.00 0.14 0.14 82 1005.8
20260507010020 66 360 0.0 0.0 0.00 0.14 0.14 82 1005.8
20260507005923 66 0 0.0 0.0 0.00 0.14 0.14 82 1005.8
20260507005821 66 0 0.0 0.0 0.00 0.14 0.14 82 1005.8
20260507005722 66 0 0.0 0.0 0.00 0.14 0.14 82 1005.8
20260507005621 66 0 0.0 0.0 0.00 0.14 0.14 82 1005.7
20260507005520 66 0 0.0 0.0 0.00 0.14 0.14 82 1005.7
20260507005420 66 0 0.0 0.0 0.00 0.14 0.14 82 1005.9
20260507005320 66 0 0.0 0.0 0.00 0.14 0.14 82 1005.9
20260507005219 66 0 0.0 0.0 0.00 0.14 0.14 82 1006.0
20260507005119 66 0 0.0 0.0 0.00 0.14 0.14 82 1006.0
20260507005050 66 360 0.0 0.0 0.00 0.14 0.14 82 1005.9
20260507005018 66 0 0.0 0.0 0.00 0.14 0.14 82 1005.9
20260507004959 66 0 0.0 0.0 0.00 0.14 0.14 82 1005.9
20260507004948 66 0 0.0 0.0 0.00 0.14 0.14 82 1005.9
20260507004725 66 0 0.0 0.0 0.00 0.14 0.14 82 1005.8
20260507004520 66 360 0.0 0.0 0.00 0.14 0.14 82 1005.6
20260507004516 66 0 0.0 0.0 0.00 0.14 0.14 82 1005.6
20260507004417 66 0 0.0 0.0 0.00 0.14 0.14 82 1005.6
20260507004316 66 0 0.0 0.0 0.00 0.14 0.14 82 1005.6
20260507004215 66 0 0.0 3.0 0.00 0.14 0.14 82 1005.6
20260507004114 66 0 0.0 4.0 0.00 0.14 0.14 82 1005.6
20260507004020 66 360 0.0 4.0 0.00 0.14 0.14 82 1005.6
20260507004014 66 0 0.0 4.0 0.00 0.14 0.14 82 1005.6
20260507003914 66 0 0.0 4.0 0.00 0.14 0.14 82 1005.6
20260507003813 66 0 0.0 4.0 0.00 0.14 0.14 82 1005.5
20260507003713 66 0 0.0 4.0 0.00 0.14 0.14 82 1005.4
20260507003640 66 0 0.0 4.0 0.00 0.14 0.14 82 1005.4
20260507003612 66 0 0.0 4.0 0.00 0.14 0.14 82 1005.4
20260507003550 66 360 0.0 4.0 0.00 0.14 0.14 82 1005.4
20260507003529 66 0 0.0 4.0 0.00 0.14 0.14 82 1005.4
20260507003411 66 0 0.0 4.0 0.00 0.14 0.14 82 1005.5
20260507003311 66 0 0.0 4.0 0.00 0.14 0.14 82 1005.4
20260507003211 66 0 0.0 4.0 0.00 0.14 0.14 82 1005.4
20260507003138 66 0 0.0 2.0 0.00 0.14 0.14 82 1005.1
20260507003110 66 0 0.0 2.0 0.00 0.14 0.14 82 1005.2
20260507003027 66 0 0.0 2.0 0.00 0.14 0.14 82 1005.1
20260507003020 66 360 0.0 2.0 0.00 0.14 0.14 82 1005.2
20260507002909 66 0 0.0 2.0 0.00 0.14 0.14 82 1005.1
20260507002809 66 0 0.0 2.0 0.00 0.14 0.14 82 1005.1
20260507002709 66 0 0.0 2.0 0.00 0.14 0.14 82 1005.0
20260507002608 66 0 0.0 2.0 0.00 0.14 0.14 82 1005.1
20260507002520 66 360 0.0 1.0 0.00 0.14 0.14 82 1005.2
20260507002508 66 0 0.0 1.0 0.00 0.14 0.14 82 1005.1
20260507002416 66 0 0.0 1.0 0.00 0.14 0.14 82 1005.1
20260507002408 67 0 0.0 0.0 0.00 0.14 0.14 82 1005.1
20260507002307 67 0 0.0 0.0 0.00 0.14 0.14 82 1005.1
20260507002221 67 0 0.0 0.0 0.00 0.14 0.14 82 1005.2
20260507002215 67 0 0.0 0.0 0.00 0.14 0.14 82 1005.1
20260507002020 67 360 0.0 0.0 0.00 0.14 0.14 82 1005.2
20260507002005 67 0 0.0 0.0 0.00 0.14 0.14 82 1005.1
20260507001906 67 0 0.0 0.0 0.00 0.14 0.14 82 1005.1
20260507001805 67 0 0.0 3.0 0.00 0.14 0.14 82 1005.2
20260507001757 67 0 0.0 3.0 0.00 0.14 0.14 82 1005.2
20260507001753 67 0 0.0 3.0 0.00 0.14 0.14 81 1005.2
20260507001749 67 0 0.0 3.0 0.00 0.14 0.14 81 1005.2
20260507001743 67 0 0.0 3.0 0.00 0.14 0.14 82 1005.2
20260507001534 67 360 0.0 3.0 0.00 0.14 0.14 82 1005.3
20260507001404 67 0 0.0 3.0 0.00 0.14 0.14 81 1005.2
20260507001304 67 0 0.0 3.0 0.00 0.14 0.14 81 1005.1
20260507001204 67 0 0.0 3.0 0.00 0.14 0.14 81 1005.1
20260507001103 67 0 0.0 5.0 0.00 0.14 0.14 81 1005.2
20260507001022 67 0 0.0 5.0 0.00 0.14 0.14 81 1005.2
20260507001020 67 360 0.0 3.0 0.00 0.14 0.14 81 1005.2
20260507001009 67 0 0.0 5.0 0.00 0.14 0.14 81 1005.1
20260507000823 67 0 0.0 5.0 0.00 0.14 0.14 81 1005.1
20260507000709 67 0 1.0 5.0 0.00 0.14 0.14 81 1005.1
20260507000520 67 360 0.0 3.0 0.00 0.14 0.14 81 1005.2
20260507000457 67 0 1.0 5.0 0.00 0.14 0.14 81 1005.1
20260507000414 67 0 1.0 5.0 0.00 0.14 0.14 81 1005.1
20260507000357 67 0 1.0 5.0 0.00 0.14 0.14 81 1005.1
20260507000258 67 0 1.0 5.0 0.00 0.14 0.14 81 1005.1
20260507000155 67 0 1.0 5.0 0.00 0.14 0.14 81 1005.1
20260507000055 67 0 1.0 4.0 0.00 0.14 0.14 81 1005.1
20260507000035 67 360 0.0 4.0 0.00 0.14 0.14 81 1005.1
20260506235955 67 0 1.0 4.0 0.00 0.14 0.14 81 1005.0
20260506235913 67 0 1.0 4.0 0.00 0.14 0.14 81 1005.1
20260506235907 67 0 0.0 4.0 0.00 0.14 0.14 81 1004.9
20260506235902 67 0 1.0 4.0 0.00 0.14 0.14 81 1005.1
20260506235653 67 0 0.0 4.0 0.00 0.14 0.14 81 1004.9
20260506235551 67 0 0.0 4.0 0.00 0.14 0.14 81 1004.9
20260506235538 67 0 0.0 4.0 0.00 0.14 0.14 81 1004.9
20260506235534 67 0 0.0 0.0 0.00 0.14 0.14 81 1004.9
20260506235529 67 0 0.0 0.0 0.00 0.14 0.14 81 1004.9
20260506235520 67 360 0.0 4.0 0.00 0.14 0.14 81 1005.0
20260506235515 67 0 0.0 4.0 0.00 0.14 0.14 81 1004.9
20260506235050 67 0 0.0 0.0 0.00 0.14 0.14 81 1004.9
20260506235020 67 360 0.0 5.0 0.00 0.14 0.14 81 1005.0
20260506234950 67 0 0.0 5.0 0.00 0.14 0.14 81 1004.9
20260506234912 67 0 0.0 5.0 0.00 0.14 0.14 81 1004.9
20260506234849 67 0 0.0 5.0 0.00 0.14 0.14 81 1004.9
20260506234749 67 0 0.0 5.0 0.00 0.14 0.14 81 1004.9
20260506234649 67 0 0.0 5.0 0.00 0.14 0.14 81 1004.9
20260506234635 67 0 0.0 5.0 0.00 0.14 0.14 81 1004.9
20260506234628 67 0 0.0 5.0 0.00 0.14 0.14 81 1004.8
20260506234520 67 360 0.0 5.0 0.00 0.14 0.14 81 1005.0
20260506234347 67 0 0.0 5.0 0.00 0.14 0.14 81 1004.9
20260506234247 67 0 0.0 5.0 0.00 0.14 0.14 81 1004.9
20260506234146 67 0 0.0 5.0 0.00 0.14 0.14 81 1005.0
20260506234133 67 0 0.0 1.0 0.00 0.14 0.14 81 1005.0
20260506234045 67 0 0.0 5.0 0.00 0.14 0.14 81 1005.0
20260506234020 67 360 0.0 2.0 0.00 0.14 0.14 81 1005.1
20260506233843 67 0 0.0 0.0 0.00 0.14 0.14 81 1005.0
20260506233744 67 0 0.0 0.0 0.00 0.14 0.14 81 1004.9
20260506233644 67 0 0.0 1.0 0.00 0.14 0.14 81 1004.9
20260506233543 67 0 0.0 1.0 0.00 0.14 0.14 81 1004.9
20260506233520 67 360 0.0 1.0 0.00 0.14 0.14 81 1005.0
20260506233502 67 0 0.0 1.0 0.00 0.14 0.14 81 1004.8
20260506233457 67 0 0.0 1.0 0.00 0.14 0.14 81 1004.9
20260506233449 67 0 0.0 1.0 0.00 0.14 0.14 81 1004.8
20260506233247 67 0 0.0 1.0 0.00 0.14 0.14 81 1004.9
20260506233243 67 0 0.0 1.0 0.00 0.14 0.14 81 1004.9
20260506233236 67 0 0.0 1.0 0.00 0.14 0.14 81 1004.8
20260506233232 67 0 0.0 1.0 0.00 0.14 0.14 81 1004.8
20260506233228 67 0 0.0 1.0 0.00 0.14 0.14 81 1004.8
20260506233222 67 0 0.0 1.0 0.00 0.14 0.14 81 1004.9
20260506233103 67 0 0.0 1.0 0.00 0.14 0.14 81 1004.8
20260506233020 67 360 0.0 1.0 0.00 0.14 0.14 81 1004.9
20260506232655 67 0 0.0 0.0 0.00 0.14 0.14 81 1004.8
20260506232650 67 0 0.0 0.0 0.00 0.14 0.14 81 1004.8
20260506232604 67 360 0.0 0.0 0.00 0.14 0.14 81 1004.9
20260506232438 67 0 0.0 0.0 0.00 0.14 0.14 81 1004.8
20260506232406 67 0 0.0 0.0 0.00 0.14 0.14 81 1004.8
20260506232338 67 0 0.0 0.0 0.00 0.14 0.14 81 1004.8
20260506232237 67 0 0.0 0.0 0.00 0.14 0.14 80 1004.8
20260506232137 67 0 0.0 0.0 0.00 0.14 0.14 80 1004.9
20260506232037 67 0 0.0 0.0 0.00 0.14 0.14 80 1004.9
20260506232035 67 360 0.0 0.0 0.00 0.14 0.14 80 1004.9
20260506231936 67 0 0.0 0.0 0.00 0.14 0.14 80 1004.9
20260506231906 67 0 0.0 0.0 0.00 0.14 0.14 80 1004.9
20260506231836 67 0 0.0 0.0 0.00 0.14 0.14 80 1004.9
20260506231816 67 0 0.0 0.0 0.00 0.14 0.14 80 1004.9
20260506231811 67 0 0.0 0.0 0.00 0.14 0.14 80 1004.9
20260506231807 67 0 0.0 0.0 0.00 0.14 0.14 80 1004.9
20260506231801 67 0 0.0 0.0 0.00 0.14 0.14 80 1004.9
20260506231520 68 360 0.0 0.0 0.00 0.14 0.14 80 1004.9
20260506231406 68 0 0.0 0.0 0.00 0.14 0.14 80 1004.9
20260506231333 68 0 0.0 0.0 0.00 0.14 0.14 80 1004.9
20260506231233 68 0 0.0 0.0 0.00 0.14 0.14 79 1004.9
20260506231132 68 0 0.0 0.0 0.00 0.14 0.14 79 1004.9
20260506231049 68 360 0.0 0.0 0.00 0.14 0.14 80 1004.8
20260506231031 68 0 0.0 0.0 0.00 0.14 0.14 80 1004.8
20260506230931 68 0 0.0 0.0 0.00 0.14 0.14 80 1004.8
20260506230905 68 0 0.0 0.0 0.00 0.14 0.14 79 1004.9
20260506230831 68 0 0.0 0.0 0.00 0.14 0.14 79 1004.9
20260506230731 68 0 0.0 0.0 0.00 0.14 0.14 79 1005.0
20260506230631 68 0 0.0 0.0 0.00 0.14 0.14 79 1005.0
20260506230611 68 0 0.0 0.0 0.00 0.14 0.14 79 1004.9
20260506230519 68 360 0.0 0.0 0.00 0.14 0.14 79 1005.0
20260506230459 68 0 0.0 0.0 0.00 0.14 0.14 79 1005.0
20260506230445 68 0 0.0 0.0 0.00 0.14 0.14 79 1005.0
20260506230134 68 0 0.0 0.0 0.00 0.14 0.14 79 1004.9
20260506230130 68 0 0.0 0.0 0.00 0.14 0.14 79 1004.9
20260506230123 68 0 0.0 0.0 0.00 0.14 0.14 79 1004.9
20260506230119 68 0 0.0 0.0 0.00 0.14 0.14 79 1004.9
20260506230114 68 0 0.0 0.0 0.00 0.14 0.14 79 1004.9
20260506230110 68 0 0.0 0.0 0.00 0.14 0.14 78 1004.9
20260506230105 68 0 0.0 3.0 0.00 0.14 0.14 78 1004.9
20260506230100 68 0 0.0 0.0 0.00 0.14 0.14 79 1005.0
20260506230050 68 0 0.0 0.0 0.00 0.14 0.14 79 1005.0
20260506230043 68 0 0.0 0.0 0.00 0.14 0.14 79 1004.9
20260506230019 68 360 0.0 0.0 0.00 0.14 0.14 79 1005.0
20260506225519 68 360 0.0 0.0 0.00 0.14 0.14 79 1004.9
20260506225451 68 0 0.0 3.0 0.00 0.14 0.14 78 1004.9
20260506225340 68 0 0.0 3.0 0.00 0.14 0.14 78 1004.9
20260506225037 68 0 0.0 3.0 0.00 0.14 0.14 78 1004.7
20260506225031 68 0 0.0 3.0 0.00 0.14 0.14 78 1004.8
20260506225019 68 360 0.0 3.0 0.00 0.14 0.14 78 1004.7
20260506224902 68 0 0.0 3.0 0.00 0.14 0.14 78 1004.7
20260506224837 68 0 0.0 3.0 0.00 0.14 0.14 78 1004.8
20260506224831 68 0 0.0 3.0 0.00 0.14 0.14 78 1004.7
20260506224622 68 0 0.0 3.0 0.00 0.14 0.14 78 1004.8
20260506224522 68 0 0.0 10.0 0.00 0.14 0.14 78 1004.8
20260506224520 68 360 0.0 10.0 0.00 0.14 0.14 78 1004.8
20260506224421 68 0 0.0 10.0 0.00 0.14 0.14 78 1004.8
20260506224400 68 0 0.0 10.0 0.00 0.14 0.14 78 1004.8
20260506224320 68 0 0.0 10.0 0.00 0.14 0.14 78 1004.8
20260506224220 68 0 0.0 10.0 0.00 0.14 0.14 78 1004.8
20260506224119 68 0 0.0 10.0 0.00 0.14 0.14 78 1004.8
20260506224050 69 360 0.0 10.0 0.00 0.14 0.14 77 1004.8
20260506224019 69 0 1.0 10.0 0.00 0.14 0.14 78 1004.7
20260506223918 69 0 1.0 10.0 0.00 0.14 0.14 78 1004.8
20260506223859 69 0 1.0 10.0 0.00 0.14 0.14 78 1004.7
20260506223818 69 215 1.0 10.0 0.00 0.14 0.14 78 1004.7
20260506223718 69 223 1.0 10.0 0.00 0.14 0.14 77 1004.7
20260506223618 69 240 1.0 10.0 0.00 0.14 0.14 77 1004.7
20260506223520 69 231 0.0 10.0 0.00 0.14 0.14 77 1004.8
20260506223517 69 230 1.0 10.0 0.00 0.14 0.14 77 1004.7
20260506223417 69 205 1.0 10.0 0.00 0.14 0.14 77 1004.8
20260506223357 69 218 2.0 10.0 0.00 0.14 0.14 77 1004.8
20260506223316 69 184 2.0 10.0 0.00 0.14 0.14 77 1004.8
20260506223216 69 205 2.0 10.0 0.00 0.14 0.14 77 1004.8
20260506223116 69 213 2.0 10.0 0.00 0.14 0.14 78 1004.7
20260506223050 69 223 0.0 8.0 0.00 0.14 0.14 78 1004.7
20260506223015 69 223 2.0 8.0 0.00 0.14 0.14 78 1004.7
20260506222914 69 210 2.0 8.0 0.00 0.14 0.14 79 1004.7
20260506222858 69 231 2.0 8.0 0.00 0.14 0.14 78 1004.7
20260506222813 69 193 2.0 8.0 0.00 0.14 0.14 78 1004.7
20260506222712 69 193 2.0 8.0 0.00 0.14 0.14 78 1004.6
20260506222611 69 223 2.0 8.0 0.00 0.14 0.14 78 1004.6
20260506222519 69 219 5.0 8.0 0.00 0.14 0.14 79 1004.5
20260506222511 69 219 2.0 8.0 0.00 0.14 0.14 79 1004.5
20260506222411 68 207 2.0 7.0 0.00 0.14 0.14 79 1004.5
20260506222358 68 182 2.0 7.0 0.00 0.14 0.14 79 1004.5
20260506222310 68 245 2.0 6.0 0.00 0.14 0.14 79 1004.5
20260506222209 68 206 2.0 6.0 0.00 0.14 0.14 79 1004.4
20260506222109 68 198 2.0 6.0 0.00 0.14 0.14 79 1004.4
20260506222020 68 360 0.0 6.0 0.00 0.14 0.14 79 1004.4
20260506222007 68 0 2.0 6.0 0.00 0.14 0.14 79 1004.4
20260506221907 68 0 2.0 6.0 0.00 0.14 0.14 79 1004.5
20260506221857 68 0 2.0 6.0 0.00 0.14 0.14 79 1004.5
20260506221806 68 0 3.0 6.0 0.00 0.14 0.14 79 1004.5
20260506221706 68 0 3.0 6.0 0.00 0.14 0.14 79 1004.5
20260506221606 68 0 3.0 6.0 0.00 0.14 0.14 79 1004.5
20260506221506 68 0 3.0 6.0 0.00 0.14 0.14 79 1004.4
20260506221405 68 0 2.0 6.0 0.00 0.14 0.14 79 1004.4
20260506221354 68 0 2.0 6.0 0.00 0.14 0.14 79 1004.4
20260506221305 68 0 2.0 5.0 0.00 0.14 0.14 79 1004.5
20260506221204 68 0 2.0 5.0 0.00 0.14 0.14 79 1004.5
20260506221103 68 0 2.0 5.0 0.00 0.14 0.14 79 1004.6
20260506221020 68 360 2.0 5.0 0.00 0.14 0.14 79 1004.6
20260506221004 68 0 2.0 5.0 0.00 0.14 0.14 79 1004.6
20260506220901 68 0 2.0 5.0 0.00 0.14 0.14 79 1004.6
20260506220853 68 0 2.0 5.0 0.00 0.14 0.14 79 1004.6
20260506220801 68 0 2.0 5.0 0.00 0.14 0.14 79 1004.6
20260506220715 68 0 2.0 5.0 0.00 0.14 0.14 80 1004.6
20260506220709 68 0 2.0 5.0 0.00 0.14 0.14 79 1004.6
20260506220520 68 360 1.0 5.0 0.00 0.14 0.14 80 1004.6
20260506220500 68 220 2.0 5.0 0.00 0.14 0.14 80 1004.6
20260506220418 68 0 3.0 8.0 0.00 0.14 0.14 80 1004.8
20260506220409 68 0 3.0 8.0 0.00 0.14 0.14 79 1004.8
20260506220404 68 226 2.0 8.0 0.00 0.14 0.14 80 1004.6
20260506220358 68 226 2.0 8.0 0.00 0.14 0.14 80 1004.6
20260506220350 68 232 3.0 8.0 0.00 0.14 0.14 80 1004.6
20260506220236 68 232 3.0 8.0 0.00 0.14 0.14 80 1004.7
20260506220118 68 0 3.0 8.0 0.00 0.14 0.14 80 1004.8
20260506220035 68 360 2.0 8.0 0.00 0.14 0.14 80 1004.8
20260506215711 68 0 3.0 10.0 0.00 0.14 0.14 79 1004.8
20260506215707 68 257 3.0 10.0 0.00 0.14 0.14 79 1004.7
20260506215701 68 254 3.0 10.0 0.00 0.14 0.14 79 1004.8
20260506215520 68 360 2.0 10.0 0.00 0.14 0.14 79 1004.7
20260506215507 68 0 3.0 10.0 0.00 0.14 0.14 79 1004.7
20260506215352 68 248 3.0 10.0 0.00 0.14 0.14 79 1004.7
20260506215250 68 220 2.0 10.0 0.00 0.14 0.14 80 1004.7
20260506215207 68 240 2.0 10.0 0.00 0.14 0.14 80 1004.5
20260506215202 68 211 2.0 10.0 0.00 0.14 0.14 80 1004.6
20260506215020 68 200 3.0 10.0 0.00 0.14 0.14 80 1004.5
20260506214950 68 200 2.0 10.0 0.00 0.14 0.14 80 1004.5
20260506214855 68 204 2.0 10.0 0.00 0.14 0.14 81 1004.6
20260506214850 68 206 2.0 10.0 0.00 0.14 0.14 81 1004.6
20260506214749 68 207 2.0 6.0 0.00 0.14 0.14 81 1004.5
20260506214649 68 209 2.0 8.0 0.00 0.14 0.14 80 1004.5
20260506214548 68 257 2.0 8.0 0.00 0.14 0.14 80 1004.5
20260506214520 68 257 1.0 8.0 0.00 0.14 0.14 81 1004.4
20260506214448 68 257 2.0 8.0 0.00 0.14 0.14 81 1004.4
20260506214347 68 256 2.0 8.0 0.00 0.14 0.14 81 1004.4
20260506214246 68 259 2.0 8.0 0.00 0.14 0.14 81 1004.4
20260506214146 68 210 2.0 8.0 0.00 0.14 0.14 81 1004.4
20260506214045 68 210 2.0 8.0 0.00 0.14 0.14 80 1004.4
20260506214019 68 211 2.0 8.0 0.00 0.14 0.14 80 1004.5
20260506213945 68 196 2.0 8.0 0.00 0.14 0.14 80 1004.5
20260506213852 67 211 2.0 8.0 0.00 0.14 0.14 80 1004.5
20260506213845 68 211 2.0 8.0 0.00 0.14 0.14 80 1004.5
20260506213744 67 230 2.0 8.0 0.00 0.14 0.14 81 1004.5
20260506213643 67 215 2.0 8.0 0.00 0.14 0.14 81 1004.5
20260506213543 67 202 2.0 5.0 0.00 0.14 0.14 81 1004.5
20260506213520 67 246 2.0 5.0 0.00 0.14 0.14 81 1004.5
20260506213443 67 240 2.0 5.0 0.00 0.14 0.14 81 1004.5
20260506213350 67 240 2.0 5.0 0.00 0.14 0.14 81 1004.4
20260506213342 67 0 2.0 5.0 0.00 0.14 0.14 81 1004.4
20260506213242 67 238 2.0 5.0 0.00 0.14 0.14 81 1004.4
20260506213142 67 0 2.0 5.0 0.00 0.14 0.14 82 1004.5
20260506213050 67 360 2.0 6.0 0.00 0.14 0.14 81 1004.5
20260506213040 67 0 2.0 6.0 0.00 0.14 0.14 81 1004.4
20260506213023 67 0 3.0 8.0 0.00 0.14 0.14 81 1004.3
20260506213019 67 227 2.0 8.0 0.00 0.14 0.14 82 1004.2
20260506213012 67 0 2.0 6.0 0.00 0.14 0.14 81 1004.5
20260506213004 67 0 2.0 8.0 0.00 0.14 0.14 81 1004.4
20260506212540 67 202 2.0 8.0 0.00 0.14 0.14 81 1004.1
20260506212520 67 202 3.0 8.0 0.00 0.14 0.14 81 1004.2
20260506212439 67 190 2.0 8.0 0.00 0.14 0.14 81 1004.1
20260506212350 67 216 2.0 8.0 0.00 0.14 0.14 82 1004.1
20260506212339 67 225 2.0 8.0 0.00 0.14 0.14 82 1004.1
20260506212238 67 0 2.0 8.0 0.00 0.14 0.14 82 1004.1
20260506212137 67 0 2.0 8.0 0.00 0.14 0.14 82 1004.1
20260506212037 67 0 2.0 8.0 0.00 0.14 0.14 82 1004.1
20260506212020 67 360 3.0 8.0 0.00 0.14 0.14 82 1004.1
20260506211937 67 0 2.0 8.0 0.00 0.14 0.14 82 1004.0
20260506211849 67 0 2.0 6.0 0.00 0.14 0.14 82 1004.1
20260506211836 67 0 2.0 6.0 0.00 0.14 0.14 82 1004.1
20260506211736 67 0 2.0 6.0 0.00 0.14 0.14 82 1004.1
20260506211636 66 0 2.0 6.0 0.00 0.14 0.14 82 1004.2
20260506211535 66 0 2.0 6.0 0.00 0.14 0.14 82 1004.2
20260506211519 66 360 2.0 6.0 0.00 0.14 0.14 82 1004.3
20260506211502 66 0 2.0 6.0 0.00 0.14 0.14 82 1004.2
20260506211343 66 0 2.0 6.0 0.00 0.14 0.14 82 1004.2
20260506211133 66 0 3.0 8.0 0.00 0.14 0.14 82 1004.2
20260506211033 66 0 3.0 8.0 0.00 0.14 0.14 82 1004.1
20260506211020 66 360 2.0 8.0 0.00 0.14 0.14 82 1004.3
20260506210932 66 0 3.0 8.0 0.00 0.14 0.14 82 1004.2
20260506210834 66 0 3.0 8.0 0.00 0.14 0.14 82 1004.2
20260506210733 66 0 3.0 8.0 0.00 0.14 0.14 82 1004.2
20260506210655 66 0 3.0 8.0 0.00 0.14 0.14 82 1004.2
20260506210542 66 0 3.0 8.0 0.00 0.14 0.14 82 1004.2
20260506210520 66 360 3.0 8.0 0.00 0.14 0.14 82 1004.3
20260506210332 66 0 3.0 8.0 0.00 0.14 0.14 82 1004.2
20260506210232 66 0 3.0 6.0 0.00 0.14 0.14 83 1004.2
20260506210213 66 0 3.0 6.0 0.00 0.14 0.14 83 1004.1
20260506210031 66 0 3.0 6.0 0.00 0.14 0.14 83 1004.1
20260506210020 66 360 3.0 6.0 0.00 0.14 0.14 83 1004.2
20260506205953 66 0 3.0 8.0 0.00 0.14 0.14 83 1004.1
20260506205828 66 0 3.0 8.0 0.00 0.14 0.14 83 1004.2
20260506205727 66 0 3.0 8.0 0.00 0.14 0.14 83 1004.2
20260506205706 66 0 3.0 8.0 0.00 0.14 0.14 83 1004.3
20260506205554 66 0 3.0 10.0 0.00 0.14 0.14 82 1004.3
20260506205549 66 0 3.0 10.0 0.00 0.14 0.14 83 1004.2
20260506205520 66 360 2.0 8.0 0.00 0.14 0.14 82 1004.4
20260506205431 66 0 3.0 10.0 0.00 0.14 0.14 82 1004.3
20260506205222 66 0 3.0 10.0 0.00 0.14 0.14 82 1004.4
20260506205135 66 0 3.0 10.0 0.00 0.14 0.14 82 1004.3
20260506205131 66 0 3.0 10.0 0.00 0.14 0.14 82 1004.3
20260506205020 66 360 3.0 8.0 0.00 0.14 0.14 82 1004.4
20260506204949 66 0 3.0 10.0 0.00 0.14 0.14 82 1004.3
20260506204940 66 0 3.0 10.0 0.00 0.14 0.14 82 1004.3
20260506204830 66 0 3.0 10.0 0.00 0.14 0.14 83 1004.3
20260506204621 66 0 3.0 10.0 0.00 0.14 0.14 83 1004.3
20260506204520 66 360 3.0 12.0 0.00 0.14 0.14 83 1004.3
20260506204437 66 0 4.0 12.0 0.00 0.14 0.14 83 1004.1
20260506204433 66 0 3.0 12.0 0.00 0.14 0.14 83 1004.2
20260506204424 66 0 4.0 12.0 0.00 0.14 0.14 83 1004.1
20260506204218 66 0 4.0 12.0 0.00 0.14 0.14 82 1004.1
20260506204118 66 0 4.0 12.0 0.00 0.14 0.14 82 1004.1
20260506204028 66 0 4.0 12.0 0.00 0.14 0.14 82 1004.2
20260506204024 66 0 4.0 12.0 0.00 0.14 0.14 82 1004.1
20260506204020 66 360 3.0 12.0 0.00 0.14 0.14 82 1004.3
20260506203842 66 0 4.0 12.0 0.00 0.14 0.14 82 1004.2
20260506203816 66 0 4.0 12.0 0.00 0.14 0.14 82 1004.2
20260506203716 66 0 3.0 12.0 0.00 0.14 0.14 82 1004.1
20260506203614 66 0 4.0 12.0 0.00 0.14 0.14 82 1004.0
20260506203520 66 360 4.0 10.0 0.00 0.14 0.14 82 1004.1
20260506203514 66 0 4.0 10.0 0.00 0.14 0.14 82 1004.0
20260506203414 66 0 4.0 11.0 0.00 0.14 0.14 83 1004.0
20260506203342 66 0 4.0 11.0 0.00 0.14 0.14 83 1004.1
20260506203315 66 0 4.0 11.0 0.00 0.14 0.14 83 1004.1
20260506203215 66 0 4.0 11.0 0.00 0.14 0.14 83 1004.1
20260506203113 66 0 4.0 11.0 0.00 0.14 0.14 84 1004.1
20260506203020 66 360 4.0 11.0 0.00 0.14 0.14 84 1004.2
20260506203013 66 0 4.0 11.0 0.00 0.14 0.14 84 1004.1
20260506202913 66 0 5.0 11.0 0.00 0.14 0.14 83 1004.0
20260506202839 65 0 5.0 11.0 0.00 0.14 0.14 83 1004.0
20260506202812 65 0 4.0 11.0 0.00 0.14 0.14 83 1004.1
20260506202713 65 0 4.0 11.0 0.00 0.14 0.14 83 1004.0
20260506202612 65 0 4.0 11.0 0.00 0.14 0.14 83 1003.9
20260506202519 65 360 5.0 11.0 0.00 0.14 0.14 84 1004.1
20260506202511 65 0 4.0 11.0 0.00 0.14 0.14 84 1004.0
20260506202412 65 0 4.0 11.0 0.00 0.14 0.14 83 1003.9
20260506202312 65 0 4.0 11.0 0.00 0.14 0.14 83 1003.9
20260506202211 65 0 4.0 11.0 0.00 0.14 0.14 84 1004.0
20260506202124 65 0 4.0 11.0 0.00 0.14 0.14 84 1004.0
20260506202120 65 0 4.0 11.0 0.00 0.14 0.14 83 1004.0
20260506202020 65 360 6.0 11.0 0.00 0.14 0.14 83 1004.1
20260506201910 65 0 4.0 9.0 0.00 0.14 0.14 84 1004.1
20260506201840 65 0 4.0 9.0 0.00 0.14 0.14 84 1004.1
20260506201810 65 0 4.0 9.0 0.00 0.14 0.14 84 1003.9
20260506201707 65 0 4.0 9.0 0.00 0.14 0.14 84 1004.0
20260506201620 65 0 4.0 10.0 0.00 0.14 0.14 84 1004.0
20260506201616 65 0 4.0 9.0 0.00 0.14 0.14 84 1003.9
20260506201520 65 360 0.0 10.0 0.00 0.14 0.14 84 1004.1
20260506201426 65 0 4.0 10.0 0.00 0.14 0.14 83 1004.1
20260506201420 65 0 4.0 10.0 0.00 0.14 0.14 84 1004.1
20260506201412 65 0 4.0 10.0 0.00 0.14 0.14 84 1004.1
20260506201205 65 0 3.0 10.0 0.00 0.14 0.14 84 1004.1
20260506201118 65 0 2.0 10.0 0.00 0.14 0.14 84 1004.2
20260506201114 65 0 3.0 10.0 0.00 0.14 0.14 84 1004.1
20260506201020 65 360 4.0 10.0 0.00 0.14 0.14 84 1004.3
20260506200903 65 0 2.0 10.0 0.00 0.14 0.14 84 1004.2
20260506200837 65 0 2.0 10.0 0.00 0.14 0.14 84 1004.2
20260506200803 65 0 2.0 10.0 0.00 0.14 0.14 84 1004.2
20260506200703 65 0 1.0 10.0 0.00 0.14 0.14 84 1004.2
20260506200603 65 0 1.0 10.0 0.00 0.14 0.14 84 1004.3
20260506200557 65 0 0.0 3.0 0.00 0.14 0.14 84 1004.3
20260506200553 65 0 1.0 5.0 0.00 0.14 0.14 84 1004.2
20260506200546 65 0 0.0 9.0 0.00 0.14 0.14 84 1004.3
20260506200520 65 360 10.0 10.0 0.00 0.14 0.14 84 1004.4
20260506200429 65 0 0.0 5.0 0.00 0.14 0.14 84 1004.3
20260506200318 65 0 1.0 5.0 0.00 0.14 0.14 84 1004.2
20260506200035 65 360 0.0 5.0 0.00 0.14 0.14 84 1004.5
20260506195959 65 0 2.0 5.0 0.00 0.14 0.14 84 1004.4
20260506195834 65 0 2.0 5.0 0.00 0.14 0.14 84 1004.3
20260506195758 65 0 2.0 5.0 0.00 0.14 0.14 84 1004.4
20260506195658 65 0 2.0 9.0 0.00 0.14 0.14 84 1004.4
20260506195605 65 0 3.0 10.0 0.00 0.14 0.14 84 1004.5
20260506195600 65 0 3.0 9.0 0.00 0.14 0.14 84 1004.4
20260506195551 65 0 3.0 9.0 0.00 0.14 0.14 84 1004.5
20260506195520 65 360 0.0 8.0 0.00 0.14 0.14 84 1004.6
20260506195256 65 0 3.0 10.0 0.00 0.14 0.14 84 1004.4
20260506195156 65 0 3.0 10.0 0.00 0.14 0.14 84 1004.5
20260506195055 65 0 3.0 10.0 0.00 0.14 0.14 84 1004.5
20260506195019 65 360 4.0 10.0 0.00 0.14 0.14 84 1004.5
20260506194955 65 0 3.0 10.0 0.00 0.14 0.14 84 1004.4
20260506194832 65 0 4.0 10.0 0.00 0.14 0.14 84 1004.4
20260506194754 65 0 4.0 10.0 0.00 0.14 0.14 84 1004.5
20260506194654 65 0 4.0 13.0 0.00 0.14 0.14 84 1004.4
20260506194551 65 0 4.0 13.0 0.00 0.14 0.14 84 1004.4
20260506194534 65 360 8.0 13.0 0.00 0.14 0.14 84 1004.5
20260506194523 65 0 3.0 13.0 0.00 0.14 0.14 85 1004.4
20260506194519 65 0 4.0 13.0 0.00 0.14 0.14 84 1004.4
20260506194514 65 0 4.0 13.0 0.00 0.14 0.14 84 1004.4
20260506194357 65 0 3.0 13.0 0.00 0.14 0.14 85 1004.4
20260506194149 65 0 4.0 13.0 0.00 0.14 0.14 85 1004.3
20260506194048 65 0 4.0 13.0 0.00 0.14 0.14 85 1004.4
20260506194020 65 360 3.0 13.0 0.00 0.14 0.14 85 1004.4
20260506193948 65 0 4.0 13.0 0.00 0.14 0.14 85 1004.3
20260506193848 65 0 3.0 13.0 0.00 0.14 0.14 85 1004.3
20260506193831 65 0 3.0 13.0 0.00 0.14 0.14 85 1004.3
20260506193747 64 0 3.0 13.0 0.00 0.14 0.14 85 1004.2
20260506193645 64 0 3.0 10.0 0.00 0.14 0.14 85 1004.3
20260506193542 64 0 3.0 10.0 0.00 0.14 0.14 85 1004.2
20260506193520 64 360 3.0 10.0 0.00 0.14 0.14 85 1004.3
20260506193440 64 0 2.0 8.0 0.00 0.14 0.14 85 1004.2
20260506193341 64 0 2.0 8.0 0.00 0.14 0.14 85 1004.3
20260506193329 64 0 2.0 8.0 0.00 0.14 0.14 85 1004.3
20260506193240 64 0 2.0 13.0 0.00 0.14 0.14 85 1004.4
20260506193140 64 0 3.0 13.0 0.00 0.14 0.14 86 1004.3
20260506193057 64 0 3.0 13.0 0.00 0.14 0.14 86 1004.5
20260506193041 64 0 3.0 13.0 0.00 0.14 0.14 86 1004.4
20260506193020 64 360 1.0 13.0 0.00 0.14 0.14 86 1004.6
20260506192947 64 0 3.0 13.0 0.00 0.14 0.14 86 1004.5
20260506192938 64 0 3.0 13.0 0.00 0.14 0.14 86 1004.5
20260506192739 64 0 3.0 13.0 0.00 0.14 0.14 86 1004.5
20260506192639 64 0 4.0 13.0 0.00 0.14 0.14 86 1004.5
20260506192550 64 0 5.0 14.0 0.00 0.14 0.14 86 1004.5
20260506192546 64 0 5.0 14.0 0.00 0.14 0.14 86 1004.5
20260506192520 64 360 0.0 14.0 0.00 0.14 0.14 86 1004.6
20260506192330 64 0 5.0 14.0 0.00 0.14 0.14 86 1004.4
20260506192236 64 0 5.0 14.0 0.00 0.14 0.14 86 1004.4
20260506192137 64 0 5.0 14.0 0.00 0.14 0.14 86 1004.4
20260506192104 64 0 5.0 14.0 0.00 0.14 0.14 86 1004.5
20260506192059 64 0 5.0 14.0 0.00 0.14 0.14 86 1004.4
20260506192054 64 0 5.0 14.0 0.00 0.14 0.14 86 1004.4
20260506192019 64 360 1.0 14.0 0.00 0.14 0.14 86 1004.5
20260506191936 64 0 5.0 14.0 0.00 0.14 0.14 86 1004.5
20260506191752 64 0 4.0 14.0 0.00 0.14 0.14 86 1004.5
20260506191748 64 0 5.0 14.0 0.00 0.14 0.14 85 1004.4
20260506191635 64 0 5.0 14.0 0.00 0.14 0.14 85 1004.5
20260506191628 64 0 4.0 14.0 0.00 0.14 0.14 87 1004.6
20260506191623 63 0 4.0 14.0 0.00 0.14 0.14 87 1004.7
20260506191617 64 0 4.0 14.0 0.00 0.14 0.14 86 1004.5
20260506191608 64 0 4.0 14.0 0.00 0.14 0.14 86 1004.5
20260506191520 64 360 5.0 12.0 0.00 0.14 0.14 86 1004.6
20260506191034 63 0 4.0 14.0 0.00 0.14 0.14 87 1004.6
20260506191020 63 360 9.0 11.0 0.00 0.14 0.14 87 1004.6
20260506190946 63 0 4.0 14.0 0.00 0.14 0.14 86 1004.5
20260506190942 63 0 4.0 14.0 0.00 0.14 0.14 87 1004.5
20260506190826 63 0 4.0 14.0 0.00 0.14 0.14 86 1004.5
20260506190803 63 0 4.0 14.0 0.00 0.14 0.14 87 1004.7
20260506190759 63 0 4.0 11.0 0.00 0.14 0.14 87 1004.6
20260506190755 63 0 4.0 13.0 0.00 0.14 0.14 87 1004.7
20260506190750 63 0 4.0 14.0 0.00 0.14 0.14 86 1004.6
20260506190520 63 360 4.0 11.0 0.00 0.14 0.14 87 1004.8
20260506190439 63 0 4.0 11.0 0.00 0.14 0.14 87 1004.7
20260506190430 63 0 4.0 13.0 0.00 0.14 0.14 87 1004.7
20260506190230 63 0 4.0 13.0 0.00 0.14 0.14 87 1004.7
20260506190143 63 0 4.0 13.0 0.00 0.14 0.14 87 1004.6
20260506190139 63 0 4.0 13.0 0.00 0.14 0.14 87 1004.7
20260506190105 63 360 3.0 11.0 0.00 0.14 0.14 87 1004.6
20260506185929 63 0 4.0 13.0 0.00 0.14 0.14 87 1004.5
20260506185823 63 0 4.0 13.0 0.00 0.14 0.14 87 1004.5
20260506185728 63 0 4.0 13.0 0.00 0.14 0.14 87 1004.6
20260506185628 63 0 4.0 13.0 0.00 0.14 0.14 88 1004.6
20260506185526 63 0 4.0 13.0 0.00 0.14 0.14 88 1004.7
20260506185519 63 360 0.0 11.0 0.00 0.14 0.14 88 1004.9
20260506185452 63 0 4.0 11.0 0.00 0.14 0.14 88 1004.8
20260506185338 63 0 3.0 11.0 0.00 0.14 0.14 88 1004.8
20260506185334 63 0 3.0 11.0 0.00 0.14 0.14 88 1004.8
20260506185123 63 0 4.0 11.0 0.00 0.14 0.14 88 1004.8
20260506185035 63 360 4.0 11.0 0.00 0.14 0.14 88 1004.9
20260506185021 63 0 4.0 11.0 0.00 0.14 0.14 88 1004.8
20260506184919 63 0 4.0 11.0 0.00 0.14 0.14 88 1004.8
20260506184822 63 0 4.0 11.0 0.00 0.14 0.14 88 1004.8
20260506184817 63 0 4.0 11.0 0.00 0.14 0.14 88 1004.8
20260506184716 63 0 4.0 9.0 0.00 0.14 0.14 88 1004.9
20260506184616 63 0 4.0 10.0 0.00 0.14 0.14 88 1004.8
20260506184519 63 360 2.0 10.0 0.00 0.14 0.14 88 1005.0
20260506184516 63 0 5.0 10.0 0.00 0.14 0.14 88 1004.9
20260506184414 62 0 5.0 13.0 0.00 0.14 0.14 88 1004.9
20260506184314 62 0 5.0 13.0 0.00 0.14 0.14 88 1004.9
20260506184214 62 0 5.0 13.0 0.00 0.14 0.14 88 1004.9
20260506184113 62 0 5.0 13.0 0.00 0.14 0.14 88 1005.0
20260506184021 63 360 5.0 13.0 0.00 0.14 0.14 88 1005.0
20260506184013 62 0 5.0 13.0 0.00 0.14 0.14 88 1004.9
20260506183912 62 0 4.0 13.0 0.00 0.14 0.14 88 1005.0
20260506183838 62 0 4.0 13.0 0.00 0.14 0.14 88 1005.0
20260506183832 62 0 5.0 13.0 0.00 0.14 0.14 88 1005.0
20260506183719 62 0 4.0 13.0 0.00 0.14 0.14 88 1005.0
20260506183535 63 360 5.0 14.0 0.00 0.14 0.14 88 1005.1
20260506183509 63 0 4.0 14.0 0.00 0.14 0.14 88 1005.0
20260506183408 63 0 4.0 14.0 0.00 0.14 0.14 88 1005.0
20260506183307 63 0 4.0 14.0 0.00 0.14 0.14 88 1005.0
20260506183207 63 0 4.0 14.0 0.00 0.14 0.14 89 1005.0
20260506183153 63 0 5.0 14.0 0.00 0.14 0.14 88 1005.0
20260506183149 63 0 5.0 17.0 0.00 0.14 0.14 88 1005.0
20260506183145 63 0 5.0 17.0 0.00 0.14 0.14 88 1004.9
20260506183139 63 0 4.0 14.0 0.00 0.14 0.14 89 1005.0
20260506183120 63 360 2.0 14.0 0.00 0.14 0.14 88 1005.1
20260506183021 63 0 5.0 17.0 0.00 0.14 0.14 88 1005.0
20260506182706 63 0 5.0 17.0 0.00 0.14 0.14 88 1004.9
20260506182604 63 0 5.0 17.0 0.00 0.14 0.14 88 1005.0
20260506182543 63 0 5.0 17.0 0.00 0.14 0.14 88 1004.9
20260506182520 63 360 5.0 17.0 0.00 0.14 0.14 88 1005.1
20260506182504 63 0 5.0 17.0 0.00 0.14 0.14 88 1005.0
20260506182427 63 0 5.0 17.0 0.00 0.14 0.14 88 1004.9
20260506182306 63 0 5.0 17.0 0.00 0.14 0.14 88 1004.9
20260506182203 63 0 5.0 17.0 0.00 0.14 0.14 88 1004.8
20260506182102 63 0 5.0 17.0 0.00 0.14 0.14 88 1004.9
20260506182020 63 360 4.0 17.0 0.00 0.14 0.14 88 1005.1
20260506182001 63 0 4.0 17.0 0.00 0.14 0.14 88 1005.0
20260506181901 63 0 4.0 17.0 0.00 0.14 0.14 88 1005.0
20260506181819 63 0 4.0 17.0 0.00 0.14 0.14 88 1005.0
20260506181800 63 0 5.0 17.0 0.00 0.14 0.14 88 1004.9
20260506181700 63 0 5.0 17.0 0.00 0.14 0.14 88 1004.8
20260506181600 63 0 5.0 14.0 0.00 0.14 0.14 88 1004.8
20260506181520 63 360 5.0 14.0 0.00 0.14 0.14 88 1005.1
20260506181458 63 0 5.0 14.0 0.00 0.14 0.14 88 1005.0
20260506181358 63 0 5.0 14.0 0.00 0.14 0.14 87 1004.9
20260506181318 63 0 5.0 14.0 0.00 0.14 0.14 87 1004.9
20260506181310 63 0 5.0 14.0 0.00 0.14 0.14 87 1005.0
20260506181306 63 0 5.0 14.0 0.00 0.14 0.14 87 1004.9
20260506181057 63 0 5.0 14.0 0.00 0.14 0.14 87 1004.9
20260506181020 63 360 3.0 14.0 0.00 0.14 0.14 87 1005.0
20260506180956 63 0 6.0 15.0 0.00 0.14 0.14 87 1004.9
20260506180854 63 0 6.0 16.0 0.00 0.14 0.14 87 1004.9
20260506180818 63 0 6.0 16.0 0.00 0.14 0.14 87 1004.9
20260506180753 63 0 6.0 16.0 0.00 0.14 0.14 87 1004.9
20260506180652 63 0 5.0 16.0 0.00 0.14 0.14 87 1004.9
20260506180552 63 0 5.0 16.0 0.00 0.14 0.14 87 1004.9
20260506180520 63 360 3.0 16.0 0.00 0.14 0.14 87 1005.0
20260506180451 63 0 4.0 16.0 0.00 0.14 0.14 87 1004.9
20260506180350 62 0 5.0 17.0 0.00 0.14 0.14 87 1005.0
20260506180317 62 0 5.0 17.0 0.00 0.14 0.14 87 1005.0
20260506180249 62 0 5.0 17.0 0.00 0.14 0.14 87 1005.0
20260506180149 62 0 5.0 17.0 0.00 0.14 0.14 87 1005.0
20260506180101 62 0 4.0 17.0 0.00 0.14 0.14 88 1005.0
20260506180056 62 0 5.0 17.0 0.00 0.14 0.14 87 1004.8
20260506180035 63 360 14.0 16.0 0.00 0.14 0.14 87 1005.1
20260506175846 62 0 4.0 17.0 0.00 0.14 0.14 88 1005.0
20260506175816 62 0 4.0 17.0 0.00 0.14 0.14 88 1005.0
20260506175745 62 0 5.0 17.0 0.00 0.14 0.14 88 1005.0
20260506175645 62 0 5.0 17.0 0.00 0.14 0.14 88 1005.0
20260506175544 62 0 6.0 17.0 0.00 0.14 0.14 88 1005.0
20260506175535 62 360 4.0 15.0 0.00 0.14 0.14 88 1005.1
20260506175443 62 0 6.0 17.0 0.00 0.14 0.14 88 1005.0
20260506175343 62 0 5.0 15.0 0.00 0.14 0.14 88 1005.1
20260506175316 62 0 5.0 15.0 0.00 0.14 0.14 88 1005.1
20260506175242 62 0 6.0 15.0 0.00 0.14 0.14 88 1005.2
20260506175155 62 0 5.0 15.0 0.00 0.14 0.14 88 1005.2
20260506175151 62 0 6.0 15.0 0.00 0.14 0.14 88 1005.1
20260506175035 62 360 5.0 14.0 0.00 0.14 0.14 88 1005.2
20260506174940 62 0 5.0 14.0 0.00 0.14 0.14 88 1005.1
20260506174906 62 0 5.0 14.0 0.00 0.14 0.14 88 1005.2
20260506174858 62 0 5.0 14.0 0.00 0.14 0.14 88 1005.2
20260506174747 62 0 5.0 14.0 0.00 0.14 0.14 88 1005.2
20260506174538 62 0 5.0 13.0 0.00 0.14 0.14 88 1005.0
20260506174519 62 360 3.0 13.0 0.00 0.14 0.14 88 1005.1
20260506174439 62 0 5.0 13.0 0.00 0.14 0.14 88 1005.0
20260506174338 62 0 5.0 13.0 0.00 0.14 0.14 89 1005.1
20260506174316 62 0 5.0 13.0 0.00 0.14 0.14 89 1005.1
20260506174237 62 0 5.0 13.0 0.00 0.14 0.14 89 1005.1
20260506174150 62 0 5.0 12.0 0.00 0.14 0.14 89 1005.2
20260506174145 62 0 5.0 12.0 0.00 0.14 0.14 89 1005.4
20260506174020 62 360 3.0 12.0 0.00 0.14 0.14 88 1005.2
20260506173936 62 0 5.0 12.0 0.00 0.14 0.14 88 1005.1
20260506173835 62 0 5.0 12.0 0.00 0.14 0.14 89 1005.2
20260506173814 62 0 5.0 12.0 0.00 0.14 0.14 89 1005.2
20260506173735 62 0 5.0 13.0 0.00 0.14 0.14 89 1005.2
20260506173633 62 0 5.0 13.0 0.00 0.14 0.14 89 1005.2
20260506173533 62 0 5.0 13.0 0.00 0.14 0.14 89 1005.1
20260506173520 62 360 5.0 13.0 0.00 0.14 0.14 89 1005.1
20260506173433 62 0 5.0 13.0 0.00 0.14 0.14 89 1005.0
20260506173313 62 0 4.0 13.0 0.00 0.14 0.14 90 1005.0
20260506173232 62 0 4.0 13.0 0.00 0.14 0.14 90 1005.0
20260506173132 62 0 5.0 13.0 0.00 0.14 0.14 90 1005.0
20260506173031 62 0 5.0 13.0 0.00 0.14 0.14 89 1004.9
20260506173020 62 360 2.0 13.0 0.00 0.14 0.14 89 1005.0
20260506172931 62 0 5.0 13.0 0.00 0.14 0.14 89 1004.9
20260506172813 62 0 5.0 13.0 0.00 0.14 0.14 89 1004.9
20260506172729 62 0 5.0 13.0 0.00 0.14 0.14 89 1004.9
20260506172629 62 0 5.0 13.0 0.00 0.14 0.14 90 1005.0
20260506172526 62 0 5.0 13.0 0.00 0.14 0.14 90 1005.0
20260506172520 62 360 2.0 13.0 0.00 0.14 0.14 90 1005.2
20260506172425 62 0 6.0 13.0 0.00 0.14 0.14 90 1005.1
20260506172319 62 0 5.0 12.0 0.00 0.14 0.14 90 1005.2
20260506172314 62 0 6.0 13.0 0.00 0.14 0.14 90 1005.1
20260506172307 62 0 6.0 13.0 0.00 0.14 0.14 90 1005.2
20260506172050 62 360 6.0 12.0 0.00 0.14 0.14 90 1005.4
20260506172024 62 0 5.0 12.0 0.00 0.14 0.14 90 1005.4
20260506171952 62 0 6.0 12.0 0.00 0.14 0.14 90 1005.5
20260506171946 62 0 5.0 12.0 0.00 0.14 0.14 90 1005.4
20260506171937 62 0 6.0 12.0 0.00 0.14 0.14 90 1005.5
20260506171643 62 0 6.0 13.0 0.00 0.14 0.14 90 1005.6
20260506171521 62 0 6.0 13.0 0.00 0.14 0.14 90 1005.7
20260506171428 62 0 5.0 13.0 0.01 0.14 0.14 90 1005.7
20260506171419 62 0 6.0 13.0 0.01 0.14 0.14 90 1005.7
20260506171220 62 0 6.0 13.0 0.01 0.14 0.14 90 1005.6
20260506171119 62 0 6.0 13.0 0.01 0.14 0.14 90 1005.6
20260506171032 62 0 5.0 13.0 0.01 0.14 0.14 90 1005.5
20260506171028 62 0 5.0 13.0 0.01 0.14 0.14 90 1005.6
20260506171020 62 360 9.0 13.0 0.01 0.14 0.14 90 1005.5
20260506170814 62 0 4.0 13.0 0.01 0.14 0.14 90 1005.5
20260506170717 62 0 4.0 13.0 0.01 0.14 0.14 90 1005.5
20260506170616 62 0 4.0 13.0 0.01 0.14 0.14 90 1005.4
20260506170521 62 0 5.0 20.0 0.01 0.14 0.14 90 1005.4
20260506170415 62 0 5.0 20.0 0.01 0.14 0.14 90 1005.4
20260506170316 62 0 4.0 20.0 0.01 0.14 0.14 91 1005.4
20260506170214 62 0 4.0 20.0 0.01 0.14 0.14 91 1005.4
20260506170114 62 0 5.0 20.0 0.01 0.14 0.14 91 1005.5
20260506170045 62 0 6.0 20.0 0.01 0.14 0.14 90 1005.4
20260506170020 62 360 0.0 20.0 0.01 0.14 0.14 90 1005.4
20260506170013 62 0 6.0 20.0 0.01 0.14 0.14 90 1005.4
20260506165925 62 0 6.0 20.0 0.01 0.14 0.14 90 1005.4
20260506165810 62 0 6.0 20.0 0.01 0.14 0.14 90 1005.4
20260506165711 62 0 6.0 20.0 0.02 0.14 0.14 90 1005.4
20260506165637 62 0 5.0 17.0 0.02 0.14 0.14 90 1005.1
20260506165610 62 0 5.0 20.0 0.02 0.14 0.14 90 1005.4
20260506165538 62 0 5.0 17.0 0.02 0.14 0.14 90 1005.1
20260506165533 62 0 5.0 17.0 0.02 0.14 0.14 91 1005.2
20260506165524 62 0 5.0 17.0 0.02 0.14 0.14 91 1005.1
20260506165520 62 360 10.0 17.0 0.02 0.14 0.14 91 1005.3
20260506165209 62 0 4.0 17.0 0.02 0.14 0.14 91 1005.2
20260506165108 62 0 5.0 18.0 0.03 0.14 0.14 91 1005.2
20260506165037 62 0 5.0 20.0 0.03 0.14 0.14 91 1005.0
20260506165035 62 360 6.0 20.0 0.03 0.14 0.14 91 1005.2
20260506165008 62 0 5.0 20.0 0.03 0.14 0.14 91 1005.1
20260506164921 62 0 5.0 20.0 0.03 0.14 0.14 91 1005.0
20260506164806 62 0 5.0 20.0 0.03 0.14 0.14 91 1005.0
20260506164706 62 0 5.0 20.0 0.03 0.14 0.14 91 1005.0
20260506164621 62 0 6.0 20.0 0.03 0.14 0.14 91 1005.0
20260506164615 62 0 5.0 20.0 0.03 0.14 0.14 91 1005.0
20260506164520 62 360 4.0 20.0 0.03 0.14 0.14 91 1005.1
20260506164421 62 0 6.0 20.0 0.04 0.14 0.14 91 1005.1
20260506164412 62 0 6.0 23.0 0.04 0.14 0.14 91 1005.1
20260506164206 62 0 6.0 23.0 0.04 0.14 0.14 91 1005.1
20260506164122 62 0 6.0 23.0 0.04 0.14 0.14 91 1005.1
20260506164118 62 0 6.0 23.0 0.05 0.14 0.14 91 1005.0
20260506164113 62 0 6.0 23.0 0.04 0.14 0.14 91 1005.1
20260506164020 62 360 3.0 19.0 0.04 0.14 0.14 91 1005.2
20260506163920 62 0 6.0 23.0 0.05 0.14 0.14 91 1005.0
20260506163802 62 0 6.0 23.0 0.05 0.14 0.14 91 1005.0
20260506163702 62 0 5.0 23.0 0.05 0.14 0.14 91 1004.9
20260506163602 62 0 5.0 23.0 0.05 0.14 0.14 91 1004.9
20260506163527 62 0 4.0 19.0 0.05 0.14 0.14 92 1005.2
20260506163519 62 360 8.0 19.0 0.05 0.14 0.14 91 1005.0
20260506163501 62 0 5.0 23.0 0.05 0.14 0.14 91 1004.9
20260506163418 62 0 4.0 23.0 0.05 0.14 0.14 91 1005.0
20260506163259 62 0 4.0 15.0 0.05 0.14 0.14 92 1005.2
20260506163159 62 0 4.0 15.0 0.06 0.14 0.14 92 1005.2
20260506163059 62 0 4.0 15.0 0.06 0.14 0.14 92 1005.4
20260506163020 62 360 5.0 11.0 0.06 0.14 0.14 92 1005.3
20260506162958 62 0 4.0 11.0 0.06 0.14 0.14 92 1005.2
20260506162857 62 0 4.0 14.0 0.06 0.14 0.14 92 1005.0
20260506162809 62 0 4.0 14.0 0.06 0.14 0.14 92 1004.9
20260506162756 62 0 4.0 14.0 0.06 0.14 0.14 92 1004.9
20260506162656 61 0 4.0 14.0 0.07 0.14 0.14 92 1004.8
20260506162610 61 0 4.0 14.0 0.07 0.14 0.14 92 1004.9
20260506162605 61 0 3.0 14.0 0.07 0.14 0.14 92 1004.9
20260506162520 61 360 0.0 14.0 0.07 0.14 0.14 92 1005.0
20260506162354 61 0 4.0 14.0 0.07 0.14 0.14 92 1004.9
20260506162308 61 0 3.0 14.0 0.07 0.14 0.14 92 1004.9
20260506162253 61 0 3.0 14.0 0.07 0.14 0.14 92 1004.9
20260506162153 61 0 3.0 14.0 0.07 0.14 0.14 92 1004.9
20260506162053 61 0 2.0 14.0 0.08 0.14 0.14 92 1005.1
20260506162027 61 0 1.0 12.0 0.08 0.14 0.14 92 1005.4
20260506162020 61 360 10.0 14.0 0.08 0.14 0.14 92 1005.3
20260506161951 61 0 1.0 14.0 0.08 0.14 0.14 92 1005.1
20260506161915 61 0 1.0 12.0 0.08 0.14 0.14 92 1005.2
20260506161751 61 0 1.0 12.0 0.08 0.14 0.14 92 1005.4
20260506161650 61 0 1.0 9.0 0.09 0.14 0.14 92 1005.4
20260506161549 61 0 1.0 6.0 0.09 0.14 0.14 92 1005.5
20260506161520 61 360 0.0 6.0 0.09 0.14 0.14 92 1005.7
20260506161450 61 0 1.0 6.0 0.08 0.13 0.14 92 1005.6
20260506161349 61 0 0.0 6.0 0.08 0.13 0.13 92 1005.7
20260506161305 61 0 1.0 5.0 0.08 0.13 0.13 92 1005.8
20260506161248 61 0 1.0 5.0 0.08 0.13 0.13 92 1005.8
20260506161148 61 0 1.0 5.0 0.08 0.13 0.13 92 1005.8
20260506161047 61 0 1.0 5.0 0.09 0.13 0.13 92 1005.8
20260506161020 61 360 0.0 5.0 0.09 0.13 0.13 91 1006.0
20260506160946 61 0 1.0 5.0 0.09 0.13 0.13 91 1005.9
20260506160905 61 0 0.0 5.0 0.09 0.13 0.13 91 1006.0
20260506160852 61 0 0.0 5.0 0.09 0.13 0.13 91 1006.0
20260506160644 61 0 0.0 5.0 0.09 0.13 0.13 91 1006.1
20260506160543 61 0 0.0 3.0 0.09 0.13 0.13 92 1006.2
20260506160520 61 360 0.0 3.0 0.09 0.13 0.13 92 1006.3
20260506160458 61 0 0.0 3.0 0.09 0.13 0.13 91 1006.3
20260506160453 61 0 0.0 3.0 0.09 0.13 0.13 92 1006.2
20260506160303 61 0 0.0 3.0 0.09 0.13 0.13 91 1006.3
20260506160241 61 0 0.0 3.0 0.09 0.13 0.13 91 1006.3
20260506160201 61 0 0.0 3.0 0.09 0.13 0.13 91 1006.3
20260506160050 61 360 0.0 4.0 0.09 0.13 0.13 91 1006.5
20260506160047 61 0 0.0 3.0 0.09 0.13 0.13 91 1006.3
20260506155837 61 0 1.0 11.0 0.09 0.13 0.13 91 1006.3
20260506155819 61 0 1.0 11.0 0.09 0.12 0.12 91 1006.4
20260506155814 61 0 1.0 11.0 0.10 0.13 0.13 91 1006.3
20260506155807 61 0 1.0 11.0 0.10 0.13 0.13 91 1006.3
20260506155654 61 0 1.0 11.0 0.09 0.12 0.12 91 1006.4
20260506155520 61 360 0.0 11.0 0.09 0.12 0.12 91 1006.5
20260506155335 61 0 1.0 11.0 0.09 0.12 0.12 91 1006.5
20260506155234 61 0 1.0 11.0 0.09 0.12 0.12 91 1006.5
20260506155132 61 0 1.0 11.0 0.08 0.11 0.12 91 1006.5
20260506155035 61 360 2.0 11.0 0.08 0.11 0.11 91 1006.6
20260506155032 61 0 0.0 11.0 0.08 0.11 0.11 91 1006.5
20260506154932 61 0 0.0 11.0 0.08 0.11 0.11 91 1006.5
20260506154831 61 0 0.0 3.0 0.08 0.11 0.11 91 1006.6
20260506154730 61 0 0.0 3.0 0.08 0.11 0.11 91 1006.5
20260506154642 61 0 0.0 4.0 0.08 0.11 0.11 90 1006.6
20260506154637 61 0 0.0 3.0 0.08 0.11 0.11 90 1006.6
20260506154520 61 360 0.0 4.0 0.08 0.11 0.11 90 1006.7
20260506154442 61 0 0.0 4.0 0.07 0.10 0.10 90 1006.7
20260506154436 61 0 0.0 4.0 0.07 0.10 0.10 90 1006.6
20260506154259 61 0 0.0 4.0 0.08 0.10 0.10 90 1006.7
20260506154226 61 0 0.0 4.0 0.08 0.10 0.10 90 1006.7
20260506154139 61 0 0.0 6.0 0.08 0.10 0.10 90 1006.7
20260506154134 61 0 0.0 4.0 0.08 0.10 0.10 90 1006.7
20260506154020 61 360 0.0 6.0 0.08 0.10 0.10 90 1006.7
20260506154018 61 0 1.0 6.0 0.07 0.09 0.09 90 1006.6
20260506153925 61 0 0.0 6.0 0.08 0.10 0.10 90 1006.6
20260506153907 61 0 0.0 6.0 0.07 0.09 0.10 90 1006.6
20260506153725 61 0 1.0 9.0 0.07 0.09 0.09 89 1006.6
20260506153623 61 0 1.0 9.0 0.07 0.09 0.09 89 1006.6
20260506153521 61 0 0.0 9.0 0.07 0.09 0.09 89 1006.7
20260506153420 61 0 0.0 9.0 0.08 0.09 0.09 89 1006.6
20260506153338 62 0 0.0 9.0 0.07 0.08 0.08 89 1006.5
20260506153333 62 0 0.0 9.0 0.08 0.09 0.09 89 1006.5
20260506153325 62 0 0.0 9.0 0.08 0.09 0.09 89 1006.5
20260506153118 62 0 0.0 9.0 0.07 0.08 0.08 89 1006.5
20260506153020 62 360 0.0 9.0 0.07 0.08 0.08 89 1006.7
20260506153018 62 0 0.0 9.0 0.07 0.08 0.08 89 1006.6
20260506152917 62 0 0.0 9.0 0.07 0.08 0.08 89 1006.6
20260506152819 62 0 0.0 9.0 0.07 0.08 0.08 89 1006.6
20260506152755 62 0 0.0 9.0 0.08 0.08 0.08 88 1006.6
20260506152718 62 0 0.0 5.0 0.07 0.07 0.08 88 1006.6
20260506152615 62 0 0.0 5.0 0.07 0.07 0.07 88 1006.6
20260506152521 62 360 0.0 5.0 0.07 0.07 0.07 88 1006.6
20260506152515 62 0 0.0 5.0 0.07 0.07 0.07 88 1006.5
20260506152415 62 0 0.0 5.0 0.07 0.07 0.07 88 1006.5
20260506152315 62 0 0.0 5.0 0.07 0.07 0.07 88 1006.5
20260506152256 62 0 0.0 5.0 0.07 0.07 0.07 88 1006.6
20260506152214 62 0 0.0 5.0 0.07 0.07 0.07 88 1006.6
20260506152135 62 0 0.0 5.0 0.06 0.06 0.07 88 1006.7
20260506152022 62 0 0.0 5.0 0.06 0.06 0.06 87 1006.6
20260506152020 62 360 0.0 5.0 0.06 0.06 0.06 87 1006.7